Time,TemperatureF,DewpointF,PressureIn,WindDirection,WindDirectionDegrees,WindSpeedMPH,WindSpeedGustMPH,Humidity,HourlyPrecipIn,Conditions,Clouds,dailyrainin,SoftwareType,DateUTC
2013-07-26 00:01:00,65.7,60.4,29.96,ESE,113,3.1,6.3,83,0.00,,,0.00,WUHU216HW,2013-07-26 04:01:00,
2013-07-26 00:06:00,65.7,60.4,29.96,NNE,23,3.4,6.7,83,0.00,,,0.00,WUHU216HW,2013-07-26 04:06:00,
2013-07-26 00:11:00,65.7,60.4,29.95,NNW,338,2.7,6.7,83,0.00,,,0.00,WUHU216HW,2013-07-26 04:11:00,
2013-07-26 00:16:00,65.7,60.4,29.95,NNE,23,4.9,5.4,83,0.00,,,0.00,WUHU216HW,2013-07-26 04:16:00,
2013-07-26 00:21:00,65.7,60.4,29.96,SSW,203,2.5,6.0,83,0.00,,,0.00,WUHU216HW,2013-07-26 04:21:00,
2013-07-26 00:26:00,65.7,60.4,29.96,NNE,23,1.8,6.0,83,0.00,,,0.00,WUHU216HW,2013-07-26 04:26:00,
2013-07-26 00:31:00,65.9,60.6,29.96,WNW,293,1.6,4.9,83,0.00,,,0.00,WUHU216HW,2013-07-26 04:31:00,
2013-07-26 00:37:00,65.9,60.9,29.96,NE,45,3.1,10.1,84,0.00,,,0.00,WUHU216HW,2013-07-26 04:37:00,
2013-07-26 00:42:00,65.9,60.9,29.95,NNW,338,1.1,10.1,84,0.00,,,0.00,WUHU216HW,2013-07-26 04:42:00,
2013-07-26 00:47:00,65.9,60.9,29.95,NNW,338,1.8,5.4,84,0.00,,,0.00,WUHU216HW,2013-07-26 04:47:00,
2013-07-26 00:52:00,65.9,60.9,29.95,NE,45,4.3,4.5,84,0.00,,,0.00,WUHU216HW,2013-07-26 04:52:00,
2013-07-26 00:57:00,65.9,60.9,29.95,West,270,2.9,4.7,84,0.00,,,0.00,WUHU216HW,2013-07-26 04:57:00,
2013-07-26 01:02:00,65.9,60.9,29.95,NNW,338,3.8,4.7,84,0.00,,,0.00,WUHU216HW,2013-07-26 05:02:00,
2013-07-26 01:07:00,65.7,60.8,29.95,NE,45,4.0,4.3,84,0.00,,,0.00,WUHU216HW,2013-07-26 05:07:00,
2013-07-26 01:12:00,65.7,60.8,29.95,NW,315,6.5,6.5,84,0.00,,,0.00,WUHU216HW,2013-07-26 05:12:00,
2013-07-26 01:17:00,65.7,60.8,29.95,WSW,248,1.3,6.5,84,0.00,,,0.00,WUHU216HW,2013-07-26 05:17:00,
2013-07-26 01:22:00,65.7,60.8,29.95,West,270,2.7,5.4,84,0.00,,,0.00,WUHU216HW,2013-07-26 05:22:00,
2013-07-26 01:27:00,65.5,60.6,29.94,ENE,68,4.7,9.2,84,0.00,,,0.00,WUHU216HW,2013-07-26 05:27:00,
2013-07-26 01:32:00,65.5,60.6,29.94,NW,315,4.0,9.2,84,0.00,,,0.00,WUHU216HW,2013-07-26 05:32:00,
2013-07-26 01:37:00,65.5,60.6,29.94,NE,45,2.2,5.4,84,0.00,,,0.00,WUHU216HW,2013-07-26 05:37:00,
2013-07-26 01:42:00,65.5,60.6,29.94,NNW,338,5.4,5.4,84,0.00,,,0.00,WUHU216HW,2013-07-26 05:42:00,
2013-07-26 01:47:00,65.7,60.8,29.93,North,0,5.8,5.8,84,0.00,,,0.00,WUHU216HW,2013-07-26 05:47:00,
2013-07-26 01:52:00,65.5,60.6,29.92,NE,45,2.9,5.8,84,0.00,,,0.00,WUHU216HW,2013-07-26 05:52:00,
2013-07-26 01:57:00,65.7,60.8,29.92,NW,315,1.1,5.8,84,0.00,,,0.00,WUHU216HW,2013-07-26 05:57:00,
2013-07-26 02:02:00,65.5,60.6,29.92,NNW,338,4.7,5.8,84,0.00,,,0.00,WUHU216HW,2013-07-26 06:02:00,
2013-07-26 02:07:00,65.5,60.6,29.93,NNW,338,3.8,5.6,84,0.00,,,0.00,WUHU216HW,2013-07-26 06:07:00,
2013-07-26 02:12:00,65.5,60.6,29.93,NW,315,4.7,5.6,84,0.00,,,0.00,WUHU216HW,2013-07-26 06:12:00,
2013-07-26 02:17:00,65.5,60.6,29.93,NNE,23,5.6,5.6,84,0.00,,,0.00,WUHU216HW,2013-07-26 06:17:00,
2013-07-26 02:22:00,65.7,60.8,29.92,ENE,68,6.9,8.3,84,0.00,,,0.00,WUHU216HW,2013-07-26 06:22:00,
2013-07-26 02:27:00,65.5,60.6,29.92,NW,315,2.0,8.3,84,0.00,,,0.00,WUHU216HW,2013-07-26 06:27:00,
2013-07-26 02:32:00,65.5,60.6,29.93,NNE,23,4.0,6.3,84,0.00,,,0.00,WUHU216HW,2013-07-26 06:32:00,
2013-07-26 02:37:00,65.5,60.6,29.93,NNE,23,7.6,7.6,84,0.00,,,0.00,WUHU216HW,2013-07-26 06:37:00,
2013-07-26 02:42:00,65.5,60.6,29.93,NW,315,4.3,7.6,84,0.00,,,0.00,WUHU216HW,2013-07-26 06:42:00,
2013-07-26 02:47:00,65.5,60.6,29.93,North,0,1.6,6.0,84,0.00,,,0.00,WUHU216HW,2013-07-26 06:47:00,
2013-07-26 02:52:00,65.5,60.6,29.93,NW,315,6.5,9.2,84,0.00,,,0.00,WUHU216HW,2013-07-26 06:52:00,
2013-07-26 02:57:00,65.5,60.2,29.92,NNE,23,2.9,9.2,83,0.00,,,0.00,WUHU216HW,2013-07-26 06:57:00,
2013-07-26 03:02:00,65.5,60.6,29.93,North,0,7.4,7.4,84,0.00,,,0.00,WUHU216HW,2013-07-26 07:02:00,
2013-07-26 03:07:00,65.5,60.2,29.93,WNW,293,1.8,7.4,83,0.00,,,0.00,WUHU216HW,2013-07-26 07:07:00,
2013-07-26 03:12:00,65.5,60.2,29.92,WNW,293,5.8,6.7,83,0.00,,,0.00,WUHU216HW,2013-07-26 07:12:00,
2013-07-26 03:17:00,65.5,60.2,29.92,NNW,338,1.8,6.7,83,0.00,,,0.00,WUHU216HW,2013-07-26 07:17:00,
2013-07-26 03:22:00,65.5,60.2,29.92,NW,315,3.4,7.6,83,0.00,,,0.00,WUHU216HW,2013-07-26 07:22:00,
2013-07-26 03:27:00,65.5,60.2,29.92,NNW,338,5.1,7.6,83,0.00,,,0.00,WUHU216HW,2013-07-26 07:27:00,
2013-07-26 03:32:00,65.5,60.2,29.92,NW,315,3.4,5.1,83,0.00,,,0.00,WUHU216HW,2013-07-26 07:32:00,
2013-07-26 03:37:00,65.5,60.2,29.93,WNW,293,3.4,4.7,83,0.00,,,0.00,WUHU216HW,2013-07-26 07:37:00,
2013-07-26 03:42:00,65.5,60.2,29.93,West,270,5.4,6.9,83,0.00,,,0.00,WUHU216HW,2013-07-26 07:42:00,
2013-07-26 03:47:00,65.5,60.2,29.93,WNW,293,4.7,8.3,83,0.00,,,0.00,WUHU216HW,2013-07-26 07:47:00,
2013-07-26 03:52:00,65.5,60.2,29.92,NW,315,2.0,8.3,83,0.00,,,0.00,WUHU216HW,2013-07-26 07:52:00,
2013-07-26 03:57:00,65.5,60.2,29.93,NW,315,2.5,6.5,83,0.00,,,0.00,WUHU216HW,2013-07-26 07:57:00,
2013-07-26 04:02:00,65.5,60.2,29.93,WSW,248,1.1,6.0,83,0.00,,,0.00,WUHU216HW,2013-07-26 08:02:00,
2013-07-26 04:07:00,65.5,60.2,29.93,North,0,3.1,6.9,83,0.00,,,0.00,WUHU216HW,2013-07-26 08:07:00,
2013-07-26 04:12:00,65.5,59.9,29.93,NNE,23,2.2,6.9,82,0.00,,,0.00,WUHU216HW,2013-07-26 08:12:00,
2013-07-26 04:17:00,65.5,59.9,29.92,NW,315,3.4,7.2,82,0.00,,,0.00,WUHU216HW,2013-07-26 08:17:00,
2013-07-26 04:22:00,65.5,59.9,29.93,North,0,5.4,7.2,82,0.00,,,0.00,WUHU216HW,2013-07-26 08:22:00,
2013-07-26 04:27:00,65.5,59.9,29.92,NW,315,6.5,7.6,82,0.00,,,0.00,WUHU216HW,2013-07-26 08:27:00,
2013-07-26 04:32:00,65.5,59.9,29.93,NW,315,4.3,7.6,82,0.00,,,0.00,WUHU216HW,2013-07-26 08:32:00,
2013-07-26 04:37:00,65.5,59.9,29.92,NW,315,4.0,7.8,82,0.00,,,0.00,WUHU216HW,2013-07-26 08:37:00,
2013-07-26 04:42:00,65.5,59.9,29.92,NW,315,4.0,7.8,82,0.00,,,0.00,WUHU216HW,2013-07-26 08:42:00,
2013-07-26 04:47:00,65.5,59.9,29.93,NW,315,2.7,5.8,82,0.00,,,0.00,WUHU216HW,2013-07-26 08:47:00,
2013-07-26 04:52:00,65.5,59.9,29.93,NW,315,2.5,5.8,82,0.00,,,0.00,WUHU216HW,2013-07-26 08:52:00,
2013-07-26 04:57:00,65.5,59.9,29.93,NNW,338,4.3,7.2,82,0.00,,,0.00,WUHU216HW,2013-07-26 08:57:00,
2013-07-26 05:02:00,65.5,59.9,29.93,WNW,293,5.8,7.2,82,0.00,,,0.00,WUHU216HW,2013-07-26 09:02:00,
2013-07-26 05:07:00,65.5,59.9,29.93,NNW,338,3.6,5.8,82,0.00,,,0.00,WUHU216HW,2013-07-26 09:07:00,
2013-07-26 05:12:00,65.5,59.9,29.93,WNW,293,4.7,6.3,82,0.00,,,0.00,WUHU216HW,2013-07-26 09:12:00,
2013-07-26 05:17:00,65.5,59.9,29.93,West,270,8.1,8.1,82,0.00,,,0.00,WUHU216HW,2013-07-26 09:17:00,
2013-07-26 05:22:00,65.5,59.9,29.93,WNW,293,7.6,8.1,82,0.00,,,0.00,WUHU216HW,2013-07-26 09:22:00,
2013-07-26 05:27:00,65.5,59.9,29.93,WNW,293,2.5,7.6,82,0.00,,,0.00,WUHU216HW,2013-07-26 09:27:00,
2013-07-26 05:32:00,65.5,59.9,29.93,NNE,23,4.7,7.4,82,0.00,,,0.00,WUHU216HW,2013-07-26 09:32:00,
2013-07-26 05:37:00,65.5,59.9,29.93,NNW,338,3.8,7.4,82,0.00,,,0.00,WUHU216HW,2013-07-26 09:37:00,
2013-07-26 05:42:00,65.5,59.9,29.93,NW,315,7.8,7.8,82,0.00,,,0.00,WUHU216HW,2013-07-26 09:42:00,
2013-07-26 05:47:00,65.5,59.9,29.93,NNW,338,4.3,7.8,82,0.00,,,0.00,WUHU216HW,2013-07-26 09:47:00,
2013-07-26 05:52:00,65.5,59.9,29.93,NW,315,6.0,9.8,82,0.00,,,0.00,WUHU216HW,2013-07-26 09:52:00,
2013-07-26 05:57:00,65.7,60.0,29.94,WNW,293,6.9,9.8,82,0.00,,,0.00,WUHU216HW,2013-07-26 09:57:00,
2013-07-26 06:02:00,65.7,60.0,29.94,West,270,3.8,9.2,82,0.00,,,0.00,WUHU216HW,2013-07-26 10:02:00,
2013-07-26 06:07:00,65.7,60.0,29.94,NW,315,2.9,7.6,82,0.00,,,0.00,WUHU216HW,2013-07-26 10:07:00,
2013-07-26 06:12:00,65.7,60.0,29.94,WNW,293,2.9,7.8,82,0.00,,,0.00,WUHU216HW,2013-07-26 10:12:00,
2013-07-26 06:17:00,65.7,60.0,29.93,NW,315,2.7,7.8,82,0.00,,,0.00,WUHU216HW,2013-07-26 10:17:00,
2013-07-26 06:22:00,65.7,60.0,29.94,NNW,338,2.5,6.3,82,0.00,,,0.00,WUHU216HW,2013-07-26 10:22:00,
2013-07-26 06:27:00,65.9,60.0,29.94,North,0,2.7,5.1,81,0.00,,,0.00,WUHU216HW,2013-07-26 10:27:00,
2013-07-26 06:32:00,65.9,60.0,29.94,NW,315,1.1,5.1,81,0.00,,,0.00,WUHU216HW,2013-07-26 10:32:00,
2013-07-26 06:37:00,65.9,60.0,29.95,WNW,293,2.2,4.7,81,0.00,,,0.00,WUHU216HW,2013-07-26 10:37:00,
2013-07-26 06:42:00,65.9,60.0,29.94,WNW,293,4.3,4.7,81,0.00,,,0.00,WUHU216HW,2013-07-26 10:42:00,
2013-07-26 06:47:00,66.1,60.1,29.95,WNW,293,1.3,4.9,81,0.00,,,0.00,WUHU216HW,2013-07-26 10:47:00,
2013-07-26 06:52:00,66.1,60.1,29.95,NW,315,2.7,4.9,81,0.00,,,0.00,WUHU216HW,2013-07-26 10:52:00,
2013-07-26 06:57:00,66.2,60.3,29.95,NW,315,4.5,4.7,81,0.00,,,0.00,WUHU216HW,2013-07-26 10:57:00,
2013-07-26 07:02:00,66.2,59.9,29.95,NW,315,2.5,4.7,80,0.00,,,0.00,WUHU216HW,2013-07-26 11:02:00,
2013-07-26 07:07:00,66.4,60.1,29.95,NW,315,4.0,4.0,80,0.00,,,0.00,WUHU216HW,2013-07-26 11:07:00,
2013-07-26 07:12:00,66.6,60.3,29.95,North,0,4.9,4.9,80,0.00,,,0.00,WUHU216HW,2013-07-26 11:12:00,
2013-07-26 07:17:00,66.6,60.3,29.95,WNW,293,4.9,4.9,80,0.00,,,0.00,WUHU216HW,2013-07-26 11:17:00,
2013-07-26 07:22:00,66.8,60.5,29.95,NW,315,2.7,4.9,80,0.00,,,0.00,WUHU216HW,2013-07-26 11:22:00,
2013-07-26 07:27:00,67.0,60.7,29.95,WNW,293,2.5,4.5,80,0.00,,,0.00,WUHU216HW,2013-07-26 11:27:00,
2013-07-26 07:32:00,67.3,61.0,29.96,WNW,293,1.8,4.5,80,0.00,,,0.00,WUHU216HW,2013-07-26 11:32:00,
2013-07-26 07:37:00,67.3,61.0,29.96,WNW,293,1.6,4.3,80,0.00,,,0.00,WUHU216HW,2013-07-26 11:37:00,
2013-07-26 07:42:00,67.3,61.0,29.96,NW,315,2.0,4.5,80,0.00,,,0.00,WUHU216HW,2013-07-26 11:42:00,
2013-07-26 07:47:00,67.5,61.2,29.96,NW,315,1.3,4.5,80,0.00,,,0.00,WUHU216HW,2013-07-26 11:47:00,
2013-07-26 07:52:00,67.7,61.4,29.96,NW,315,4.0,4.3,80,0.00,,,0.00,WUHU216HW,2013-07-26 11:52:00,
2013-07-26 07:57:00,67.9,61.2,29.95,NW,315,2.0,4.0,79,0.00,,,0.00,WUHU216HW,2013-07-26 11:57:00,
2013-07-26 08:02:00,68.0,61.4,29.95,West,270,2.7,5.4,79,0.00,,,0.00,WUHU216HW,2013-07-26 12:02:00,
2013-07-26 08:07:00,68.2,61.6,29.96,NW,315,4.7,5.4,79,0.00,,,0.00,WUHU216HW,2013-07-26 12:07:00,
2013-07-26 08:12:00,68.4,61.7,29.96,NNW,338,2.7,4.7,79,0.00,,,0.00,WUHU216HW,2013-07-26 12:12:00,
2013-07-26 08:17:00,68.8,61.7,29.96,WNW,293,3.4,4.0,78,0.00,,,0.00,WUHU216HW,2013-07-26 12:17:00,
2013-07-26 08:22:00,69.1,61.9,29.96,NNE,23,4.5,5.4,78,0.00,,,0.00,WUHU216HW,2013-07-26 12:22:00,
2013-07-26 08:27:00,69.3,61.7,29.96,NNE,23,1.6,5.4,77,0.00,,,0.00,WUHU216HW,2013-07-26 12:27:00,
2013-07-26 08:32:00,69.7,62.1,29.96,NW,315,3.8,3.8,77,0.00,,,0.00,WUHU216HW,2013-07-26 12:32:00,
2013-07-26 08:37:00,70.0,62.4,29.96,NW,315,3.4,6.9,77,0.00,,,0.00,WUHU216HW,2013-07-26 12:37:00,
2013-07-26 08:42:00,70.4,62.4,29.96,WNW,293,4.9,6.9,76,0.00,,,0.00,WUHU216HW,2013-07-26 12:42:00,
2013-07-26 08:47:00,70.6,62.2,29.97,NNW,338,4.5,8.7,75,0.00,,,0.00,WUHU216HW,2013-07-26 12:47:00,
2013-07-26 08:52:00,70.9,62.6,29.97,NW,315,2.9,8.7,75,0.00,,,0.00,WUHU216HW,2013-07-26 12:52:00,
2013-07-26 08:57:00,71.3,62.6,29.97,NNW,338,5.1,7.6,74,0.00,,,0.00,WUHU216HW,2013-07-26 12:57:00,
2013-07-26 09:02:00,71.3,62.2,29.97,WNW,293,4.7,7.6,73,0.00,,,0.00,WUHU216HW,2013-07-26 13:02:00,
2013-07-26 09:07:00,71.1,61.6,29.97,NW,315,4.5,8.7,72,0.00,,,0.00,WUHU216HW,2013-07-26 13:07:00,
2013-07-26 09:12:00,71.1,62.0,29.97,WNW,293,6.0,8.7,73,0.00,,,0.00,WUHU216HW,2013-07-26 13:12:00,
2013-07-26 09:17:00,71.3,62.2,29.97,NNW,338,4.5,6.0,73,0.00,,,0.00,WUHU216HW,2013-07-26 13:17:00,
2013-07-26 09:22:00,71.5,62.4,29.97,NW,315,2.2,4.7,73,0.00,,,0.00,WUHU216HW,2013-07-26 13:22:00,
2013-07-26 09:27:00,72.0,63.3,29.96,WNW,293,6.9,6.9,74,0.00,,,0.00,WUHU216HW,2013-07-26 13:27:00,
2013-07-26 09:32:00,72.9,64.2,29.96,NW,315,4.7,6.9,74,0.00,,,0.00,WUHU216HW,2013-07-26 13:32:00,
2013-07-26 09:37:00,73.1,64.0,29.97,North,0,4.9,6.5,73,0.00,,,0.00,WUHU216HW,2013-07-26 13:37:00,
2013-07-26 09:42:00,73.1,63.5,29.97,WNW,293,4.7,6.3,72,0.00,,,0.00,WUHU216HW,2013-07-26 13:42:00,
2013-07-26 09:47:00,73.1,63.5,29.97,NNW,338,1.6,5.8,72,0.00,,,0.00,WUHU216HW,2013-07-26 13:47:00,
2013-07-26 09:52:00,73.1,63.5,29.97,WNW,293,6.9,6.9,72,0.00,,,0.00,WUHU216HW,2013-07-26 13:52:00,
2013-07-26 09:57:00,73.1,63.2,29.97,ENE,68,2.5,6.9,71,0.00,,,0.00,WUHU216HW,2013-07-26 13:57:00,
2013-07-26 10:02:00,73.3,63.7,29.97,WNW,293,5.6,5.8,72,0.00,,,0.00,WUHU216HW,2013-07-26 14:02:00,
2013-07-26 10:07:00,73.4,63.5,29.97,NNW,338,4.0,6.3,71,0.00,,,0.00,WUHU216HW,2013-07-26 14:07:00,
2013-07-26 10:12:00,73.6,63.7,29.98,NNW,338,6.5,6.5,71,0.00,,,0.00,WUHU216HW,2013-07-26 14:12:00,
2013-07-26 10:17:00,73.8,63.6,29.97,NE,45,6.9,6.9,70,0.00,,,0.00,WUHU216HW,2013-07-26 14:17:00,
2013-07-26 10:22:00,74.2,63.4,29.98,NE,45,1.8,6.9,69,0.00,,,0.00,WUHU216HW,2013-07-26 14:22:00,
2013-07-26 10:27:00,74.2,63.4,29.98,WNW,293,6.9,6.9,69,0.00,,,0.00,WUHU216HW,2013-07-26 14:27:00,
2013-07-26 10:32:00,74.7,63.5,29.98,WNW,293,4.7,7.2,68,0.00,,,0.00,WUHU216HW,2013-07-26 14:32:00,
2013-07-26 10:37:00,75.1,63.8,29.98,ENE,68,2.5,7.2,68,0.00,,,0.00,WUHU216HW,2013-07-26 14:37:00,
2013-07-26 10:42:00,75.1,63.8,29.98,NW,315,1.1,5.6,68,0.00,,,0.00,WUHU216HW,2013-07-26 14:42:00,
2013-07-26 10:47:00,75.2,63.9,29.98,NW,315,1.8,4.0,68,0.00,,,0.00,WUHU216HW,2013-07-26 14:47:00,
2013-07-26 10:52:00,75.4,64.1,29.98,NW,315,4.0,4.0,68,0.00,,,0.00,WUHU216HW,2013-07-26 14:52:00,
2013-07-26 10:57:00,75.4,64.1,29.98,SW,225,1.8,4.0,68,0.00,,,0.00,WUHU216HW,2013-07-26 14:57:00,
2013-07-26 11:02:00,75.6,64.3,29.98,South,180,1.8,4.0,68,0.00,,,0.00,WUHU216HW,2013-07-26 15:02:00,
2013-07-26 11:07:00,75.6,64.7,29.98,WNW,293,3.4,5.1,69,0.00,,,0.00,WUHU216HW,2013-07-26 15:07:00,
2013-07-26 11:12:00,76.0,65.1,29.98,NW,315,4.3,5.1,69,0.00,,,0.00,WUHU216HW,2013-07-26 15:12:00,
2013-07-26 11:17:00,76.1,64.8,29.98,NW,315,2.7,6.9,68,0.00,,,0.00,WUHU216HW,2013-07-26 15:17:00,
2013-07-26 11:22:00,76.3,64.5,29.98,NNW,338,2.7,7.6,67,0.00,,,0.00,WUHU216HW,2013-07-26 15:22:00,
2013-07-26 11:27:00,76.3,64.5,29.98,NW,315,7.2,7.6,67,0.00,,,0.00,WUHU216HW,2013-07-26 15:27:00,
2013-07-26 11:32:00,76.3,64.5,29.98,NW,315,3.6,7.2,67,0.00,,,0.00,WUHU216HW,2013-07-26 15:32:00,
2013-07-26 11:37:00,76.5,64.3,29.98,NW,315,2.0,5.4,66,0.00,,,0.00,WUHU216HW,2013-07-26 15:37:00,
2013-07-26 11:42:00,76.7,64.4,29.98,NW,315,2.2,5.4,66,0.00,,,0.00,WUHU216HW,2013-07-26 15:42:00,
2013-07-26 11:47:00,77.2,65.0,29.98,NW,315,5.4,6.3,66,0.00,,,0.00,WUHU216HW,2013-07-26 15:47:00,
2013-07-26 11:52:00,77.4,65.2,29.97,NNW,338,6.3,6.9,66,0.00,,,0.00,WUHU216HW,2013-07-26 15:52:00,
2013-07-26 11:57:00,77.6,64.9,29.98,West,270,3.6,6.9,65,0.00,,,0.00,WUHU216HW,2013-07-26 15:57:00,
2013-07-26 12:02:00,77.8,65.1,29.98,NE,45,3.4,4.3,65,0.00,,,0.00,WUHU216HW,2013-07-26 16:02:00,
2013-07-26 12:07:00,77.8,64.6,29.98,NNE,23,2.2,4.9,64,0.00,,,0.00,WUHU216HW,2013-07-26 16:07:00,
2013-07-26 12:13:00,77.8,64.6,29.98,ENE,68,1.8,4.9,64,0.00,,,0.00,WUHU216HW,2013-07-26 16:13:00,
2013-07-26 12:17:00,77.9,64.8,29.97,West,270,6.7,6.7,64,0.00,,,0.00,WUHU216HW,2013-07-26 16:17:00,
2013-07-26 12:22:00,78.3,65.1,29.97,NW,315,4.7,6.7,64,0.00,,,0.00,WUHU216HW,2013-07-26 16:22:00,
2013-07-26 12:28:00,78.3,64.7,29.97,WNW,293,1.6,5.1,63,0.00,,,0.00,WUHU216HW,2013-07-26 16:28:00,
2013-07-26 12:33:00,78.7,65.0,29.97,NNW,338,2.0,4.3,63,0.00,,,0.00,WUHU216HW,2013-07-26 16:33:00,
2013-07-26 12:38:00,78.7,64.6,29.97,NE,45,3.1,4.7,62,0.00,,,0.00,WUHU216HW,2013-07-26 16:38:00,
2013-07-26 12:43:00,78.5,64.9,29.97,NE,45,5.6,5.6,63,0.00,,,0.00,WUHU216HW,2013-07-26 16:43:00,
2013-07-26 12:47:00,78.5,64.9,29.97,ENE,68,2.2,8.5,63,0.00,,,0.00,WUHU216HW,2013-07-26 16:47:00,
2013-07-26 12:52:00,77.8,64.2,29.97,East,90,3.8,8.5,63,0.00,,,0.00,WUHU216HW,2013-07-26 16:52:00,
2013-07-26 12:57:00,77.0,63.9,29.97,ENE,68,4.0,5.1,64,0.00,,,0.00,WUHU216HW,2013-07-26 16:57:00,
2013-07-26 13:02:00,76.9,64.2,29.97,East,90,4.3,5.1,65,0.00,,,0.00,WUHU216HW,2013-07-26 17:02:00,
2013-07-26 13:07:00,76.9,64.2,29.97,NE,45,4.0,8.5,65,0.00,,,0.00,WUHU216HW,2013-07-26 17:07:00,
2013-07-26 13:12:00,77.2,64.5,29.97,North,0,2.2,8.5,65,0.00,,,0.00,WUHU216HW,2013-07-26 17:12:00,
2013-07-26 13:17:00,77.4,64.3,29.97,NNE,23,1.1,4.9,64,0.00,,,0.00,WUHU216HW,2013-07-26 17:17:00,
2013-07-26 13:22:00,77.4,64.3,29.97,ENE,68,1.8,4.9,64,0.00,,,0.00,WUHU216HW,2013-07-26 17:22:00,
2013-07-26 13:27:00,77.2,64.5,29.97,SE,135,2.0,3.1,65,0.00,,,0.00,WUHU216HW,2013-07-26 17:27:00,
2013-07-26 13:32:00,77.4,64.7,29.98,SSE,158,2.2,3.1,65,0.00,,,0.00,WUHU216HW,2013-07-26 17:32:00,
2013-07-26 13:37:00,77.8,64.2,29.97,East,90,2.5,3.4,63,0.00,,,0.00,WUHU216HW,2013-07-26 17:37:00,
2013-07-26 13:42:00,77.8,64.2,29.97,SE,135,1.8,3.4,63,0.00,,,0.00,WUHU216HW,2013-07-26 17:42:00,
2013-07-26 13:47:00,77.6,64.0,29.97,NE,45,2.7,2.7,63,0.00,,,0.00,WUHU216HW,2013-07-26 17:47:00,
2013-07-26 13:52:00,77.6,64.5,29.97,SSE,158,2.7,2.7,64,0.00,,,0.00,WUHU216HW,2013-07-26 17:52:00,
2013-07-26 13:57:00,78.1,65.3,29.97,East,90,1.6,3.4,65,0.00,,,0.00,WUHU216HW,2013-07-26 17:57:00,
2013-07-26 14:02:00,78.7,65.9,29.97,South,180,2.9,3.4,65,0.00,,,0.00,WUHU216HW,2013-07-26 18:02:00,
2013-07-26 14:07:00,79.0,65.8,29.98,ENE,68,1.8,3.4,64,0.00,,,0.00,WUHU216HW,2013-07-26 18:07:00,
2013-07-26 14:12:00,79.0,65.3,29.98,SSE,158,3.1,3.4,63,0.00,,,0.00,WUHU216HW,2013-07-26 18:12:00,
2013-07-26 14:17:00,79.2,66.0,29.98,NE,45,4.7,4.7,64,0.00,,,0.00,WUHU216HW,2013-07-26 18:17:00,
2013-07-26 14:22:00,78.8,64.8,29.98,East,90,1.6,4.7,62,0.00,,,0.00,WUHU216HW,2013-07-26 18:22:00,
2013-07-26 14:27:00,78.3,64.7,29.98,SSW,203,2.0,3.8,63,0.00,,,0.00,WUHU216HW,2013-07-26 18:27:00,
2013-07-26 14:32:00,77.9,64.8,29.98,SSE,158,1.6,2.9,64,0.00,,,0.00,WUHU216HW,2013-07-26 18:32:00,
2013-07-26 14:37:00,78.1,65.0,29.98,South,180,1.1,2.9,64,0.00,,,0.00,WUHU216HW,2013-07-26 18:37:00,
2013-07-26 14:42:00,77.9,64.8,29.97,SSE,158,3.6,3.6,64,0.00,,,0.00,WUHU216HW,2013-07-26 18:42:00,
2013-07-26 14:47:00,77.9,65.3,29.98,SSE,158,1.3,3.6,65,0.00,,,0.00,WUHU216HW,2013-07-26 18:47:00,
2013-07-26 14:52:00,77.9,65.3,29.98,SSE,158,2.7,2.7,65,0.00,,,0.00,WUHU216HW,2013-07-26 18:52:00,
2013-07-26 14:57:00,77.8,64.6,29.97,SSE,158,2.0,2.7,64,0.00,,,0.00,WUHU216HW,2013-07-26 18:57:00,
2013-07-26 15:02:00,77.4,64.3,29.97,SE,135,0.9,2.5,64,0.00,,,0.00,WUHU216HW,2013-07-26 19:02:00,
2013-07-26 15:07:00,77.0,63.9,29.97,East,90,1.3,2.2,64,0.00,,,0.00,WUHU216HW,2013-07-26 19:07:00,
2013-07-26 15:08:00,77.0,63.9,29.97,East,90,1.3,2.2,64,0.00,,,0.00,WUHU216HW,2013-07-26 19:08:00,
2013-07-26 15:13:00,77.0,64.4,29.97,NNE,23,2.9,2.9,65,0.00,,,0.00,WUHU216HW,2013-07-26 19:13:00,
2013-07-26 15:18:00,77.6,64.9,29.97,ENE,68,2.7,3.4,65,0.00,,,0.00,WUHU216HW,2013-07-26 19:18:00,
2013-07-26 15:23:00,78.1,65.3,29.98,SE,135,1.8,3.4,65,0.00,,,0.00,WUHU216HW,2013-07-26 19:23:00,
2013-07-26 15:28:00,78.1,65.0,29.97,SSE,158,2.0,3.1,64,0.00,,,0.00,WUHU216HW,2013-07-26 19:28:00,
2013-07-26 15:32:00,78.1,65.0,29.98,SSE,158,1.8,2.7,64,0.00,,,0.00,WUHU216HW,2013-07-26 19:32:00,
2013-07-26 15:38:00,78.1,65.0,29.97,SSE,158,4.0,4.0,64,0.00,,,0.00,WUHU216HW,2013-07-26 19:38:00,
2013-07-26 15:43:00,78.3,65.1,29.98,ENE,68,1.3,4.0,64,0.00,,,0.00,WUHU216HW,2013-07-26 19:43:00,
2013-07-26 15:47:00,78.3,65.1,29.98,SSE,158,1.8,3.1,64,0.00,,,0.00,WUHU216HW,2013-07-26 19:47:00,
2013-07-26 15:52:00,78.3,65.1,29.98,SSE,158,1.1,3.1,64,0.00,,,0.00,WUHU216HW,2013-07-26 19:52:00,
2013-07-26 15:57:00,78.3,65.1,29.97,ESE,113,2.2,3.8,64,0.00,,,0.00,WUHU216HW,2013-07-26 19:57:00,
2013-07-26 16:02:00,78.3,65.1,29.97,SE,135,1.1,3.8,64,0.00,,,0.00,WUHU216HW,2013-07-26 20:02:00,
2013-07-26 16:07:00,78.5,65.3,29.97,SSE,158,2.7,3.4,64,0.00,,,0.00,WUHU216HW,2013-07-26 20:07:00,
2013-07-26 16:09:00,78.5,65.3,29.97,SE,135,1.6,2.7,64,0.00,,,0.00,WUHU216HW,2013-07-26 20:09:00,
2013-07-26 16:10:00,78.5,65.3,29.97,SSE,158,0.9,2.7,64,0.00,,,0.00,WUHU216HW,2013-07-26 20:10:00,
2013-07-26 16:12:00,78.5,65.3,29.97,SSE,158,1.8,2.7,64,0.00,,,0.00,WUHU216HW,2013-07-26 20:12:00,
2013-07-26 16:13:00,78.5,65.3,29.97,SSE,158,1.8,2.7,64,0.00,,,0.00,WUHU216HW,2013-07-26 20:13:00,
2013-07-26 16:15:00,78.5,65.3,29.97,SE,135,3.1,3.1,64,0.00,,,0.00,WUHU216HW,2013-07-26 20:15:00,
2013-07-26 16:16:00,78.7,65.4,29.97,South,180,2.0,3.1,64,0.00,,,0.00,WUHU216HW,2013-07-26 20:16:00,
2013-07-26 16:18:00,78.7,65.4,29.97,SSE,158,1.8,3.1,64,0.00,,,0.00,WUHU216HW,2013-07-26 20:18:00,
2013-07-26 16:19:00,78.7,65.4,29.97,SSE,158,0.7,3.1,64,0.00,,,0.00,WUHU216HW,2013-07-26 20:19:00,
2013-07-26 16:20:00,78.7,65.4,29.97,SSE,158,1.1,3.1,64,0.00,,,0.00,WUHU216HW,2013-07-26 20:20:00,
2013-07-26 16:21:00,78.7,65.4,29.97,SSE,158,1.8,3.1,64,0.00,,,0.00,WUHU216HW,2013-07-26 20:21:00,
2013-07-26 16:22:00,78.8,65.6,29.98,SSE,158,1.6,3.1,64,0.00,,,0.00,WUHU216HW,2013-07-26 20:22:00,
2013-07-26 16:23:00,78.8,65.6,29.98,SSE,158,2.7,3.1,64,0.00,,,0.00,WUHU216HW,2013-07-26 20:23:00,
2013-07-26 16:24:00,78.8,65.6,29.98,South,180,2.0,3.1,64,0.00,,,0.00,WUHU216HW,2013-07-26 20:24:00,
2013-07-26 16:25:00,78.8,65.6,29.98,SSE,158,2.7,2.7,64,0.00,,,0.00,WUHU216HW,2013-07-26 20:25:00,
2013-07-26 16:26:00,78.8,65.6,29.98,SSE,158,2.9,2.9,64,0.00,,,0.00,WUHU216HW,2013-07-26 20:26:00,
2013-07-26 16:27:00,78.7,65.4,29.98,SSE,158,1.1,2.9,64,0.00,,,0.00,WUHU216HW,2013-07-26 20:27:00,
2013-07-26 16:28:00,78.7,65.4,29.98,SSE,158,1.6,2.9,64,0.00,,,0.00,WUHU216HW,2013-07-26 20:28:00,
2013-07-26 16:29:00,78.7,65.4,29.98,South,180,2.5,2.9,64,0.00,,,0.00,WUHU216HW,2013-07-26 20:29:00,
2013-07-26 16:30:00,78.7,65.4,29.98,South,180,1.8,2.9,64,0.00,,,0.00,WUHU216HW,2013-07-26 20:30:00,
2013-07-26 16:31:00,78.7,65.4,29.98,SSE,158,2.5,2.9,64,0.00,,,0.00,WUHU216HW,2013-07-26 20:31:00,
2013-07-26 16:32:00,78.7,65.4,29.98,SE,135,2.7,2.9,64,0.00,,,0.00,WUHU216HW,2013-07-26 20:32:00,
2013-07-26 16:33:00,78.5,65.3,29.97,South,180,1.8,2.9,64,0.00,,,0.00,WUHU216HW,2013-07-26 20:33:00,
2013-07-26 16:34:00,78.5,65.3,29.97,SSE,158,0.9,2.9,64,0.00,,,0.00,WUHU216HW,2013-07-26 20:34:00,
2013-07-26 16:35:00,78.7,65.4,29.98,SSE,158,2.0,2.9,64,0.00,,,0.00,WUHU216HW,2013-07-26 20:35:00,
2013-07-26 16:36:00,78.5,65.7,29.98,South,180,4.3,4.3,65,0.00,,,0.00,WUHU216HW,2013-07-26 20:36:00,
2013-07-26 16:37:00,78.5,65.7,29.98,ENE,68,3.8,4.3,65,0.00,,,0.00,WUHU216HW,2013-07-26 20:37:00,
2013-07-26 16:38:00,78.5,65.7,29.98,East,90,2.5,4.3,65,0.00,,,0.00,WUHU216HW,2013-07-26 20:38:00,
2013-07-26 16:39:00,78.5,65.7,29.98,ESE,113,2.0,4.3,65,0.00,,,0.00,WUHU216HW,2013-07-26 20:39:00,
2013-07-26 16:40:00,78.5,65.7,29.98,SSW,203,1.8,4.3,65,0.00,,,0.00,WUHU216HW,2013-07-26 20:40:00,
2013-07-26 16:41:00,78.5,65.7,29.98,SSE,158,3.1,4.3,65,0.00,,,0.00,WUHU216HW,2013-07-26 20:41:00,
2013-07-26 16:42:00,78.5,65.7,29.97,SSW,203,1.1,4.3,65,0.00,,,0.00,WUHU216HW,2013-07-26 20:42:00,
2013-07-26 16:43:00,78.5,65.7,29.97,SW,225,1.8,4.3,65,0.00,,,0.00,WUHU216HW,2013-07-26 20:43:00,
2013-07-26 16:44:00,78.5,65.7,29.98,SSW,203,1.3,4.3,65,0.00,,,0.00,WUHU216HW,2013-07-26 20:44:00,
2013-07-26 16:45:00,78.7,65.9,29.98,SSE,158,1.8,4.3,65,0.00,,,0.00,WUHU216HW,2013-07-26 20:45:00,
2013-07-26 16:46:00,78.5,65.7,29.97,SSW,203,2.9,3.8,65,0.00,,,0.00,WUHU216HW,2013-07-26 20:46:00,
2013-07-26 16:47:00,78.7,65.9,29.97,SSE,158,3.8,3.8,65,0.00,,,0.00,WUHU216HW,2013-07-26 20:47:00,
2013-07-26 16:48:00,78.7,66.3,29.97,SSE,158,3.8,3.8,66,0.00,,,0.00,WUHU216HW,2013-07-26 20:48:00,
2013-07-26 16:49:00,78.7,66.3,29.97,South,180,2.7,3.8,66,0.00,,,0.00,WUHU216HW,2013-07-26 20:49:00,
2013-07-26 16:50:00,78.7,66.3,29.97,South,180,4.3,4.3,66,0.00,,,0.00,WUHU216HW,2013-07-26 20:50:00,
2013-07-26 16:51:00,78.7,66.3,29.97,SSE,158,3.8,4.3,66,0.00,,,0.00,WUHU216HW,2013-07-26 20:51:00,
2013-07-26 16:52:00,78.7,66.3,29.98,SSW,203,2.7,4.3,66,0.00,,,0.00,WUHU216HW,2013-07-26 20:52:00,
2013-07-26 16:53:00,78.7,66.3,29.97,SSE,158,2.7,4.3,66,0.00,,,0.00,WUHU216HW,2013-07-26 20:53:00,
2013-07-26 16:54:00,78.8,66.5,29.98,SSE,158,2.5,4.3,66,0.00,,,0.00,WUHU216HW,2013-07-26 20:54:00,
2013-07-26 16:55:00,78.7,66.3,29.98,SSE,158,1.8,4.3,66,0.00,,,0.00,WUHU216HW,2013-07-26 20:55:00,
2013-07-26 16:56:00,78.7,66.3,29.98,SE,135,1.6,4.3,66,0.00,,,0.00,WUHU216HW,2013-07-26 20:56:00,
2013-07-26 16:57:00,78.7,66.3,29.98,SSE,158,2.9,4.3,66,0.00,,,0.00,WUHU216HW,2013-07-26 20:57:00,
2013-07-26 16:58:00,78.7,66.3,29.98,NE,45,2.5,4.3,66,0.00,,,0.00,WUHU216HW,2013-07-26 20:58:00,
2013-07-26 16:59:00,78.7,66.3,29.98,SSE,158,6.0,6.0,66,0.00,,,0.00,WUHU216HW,2013-07-26 20:59:00,
2013-07-26 17:00:00,78.7,66.3,29.98,SSE,158,2.7,6.0,66,0.00,,,0.00,WUHU216HW,2013-07-26 21:00:00,
2013-07-26 17:01:00,78.5,66.2,29.98,South,180,1.8,6.0,66,0.00,,,0.00,WUHU216HW,2013-07-26 21:01:00,
2013-07-26 17:02:00,78.7,66.3,29.97,South,180,1.6,6.0,66,0.00,,,0.00,WUHU216HW,2013-07-26 21:02:00,
2013-07-26 17:03:00,78.5,66.2,29.97,SSW,203,2.5,6.0,66,0.00,,,0.00,WUHU216HW,2013-07-26 21:03:00,
2013-07-26 17:04:00,78.5,66.2,29.98,SW,225,2.0,6.0,66,0.00,,,0.00,WUHU216HW,2013-07-26 21:04:00,
2013-07-26 17:05:00,78.5,66.2,29.98,South,180,1.8,6.0,66,0.00,,,0.00,WUHU216HW,2013-07-26 21:05:00,
2013-07-26 17:06:00,78.5,66.2,29.98,South,180,4.3,6.0,66,0.00,,,0.00,WUHU216HW,2013-07-26 21:06:00,
2013-07-26 17:07:00,78.5,66.2,29.98,SSE,158,1.6,6.0,66,0.00,,,0.00,WUHU216HW,2013-07-26 21:07:00,
2013-07-26 17:08:00,78.5,66.2,29.98,SSE,158,2.7,6.0,66,0.00,,,0.00,WUHU216HW,2013-07-26 21:08:00,
2013-07-26 17:09:00,78.5,66.2,29.98,SSE,158,4.0,6.0,66,0.00,,,0.00,WUHU216HW,2013-07-26 21:09:00,
2013-07-26 17:10:00,78.5,66.2,29.98,ENE,68,2.0,4.3,66,0.00,,,0.00,WUHU216HW,2013-07-26 21:10:00,
2013-07-26 17:11:00,78.3,66.0,29.98,SSW,203,2.2,4.3,66,0.00,,,0.00,WUHU216HW,2013-07-26 21:11:00,
2013-07-26 17:12:00,78.3,66.0,29.98,SSE,158,2.5,4.3,66,0.00,,,0.00,WUHU216HW,2013-07-26 21:12:00,
2013-07-26 17:13:00,78.5,66.2,29.98,SSE,158,2.0,4.3,66,0.00,,,0.00,WUHU216HW,2013-07-26 21:13:00,
2013-07-26 17:14:00,78.5,66.2,29.97,SE,135,3.1,4.3,66,0.00,,,0.00,WUHU216HW,2013-07-26 21:14:00,
2013-07-26 17:15:00,78.5,66.2,29.97,SE,135,1.8,4.3,66,0.00,,,0.00,WUHU216HW,2013-07-26 21:15:00,
2013-07-26 17:16:00,78.5,66.2,29.97,South,180,2.2,4.0,66,0.00,,,0.00,WUHU216HW,2013-07-26 21:16:00,
2013-07-26 17:17:00,78.5,66.2,29.97,SSE,158,4.0,4.0,66,0.00,,,0.00,WUHU216HW,2013-07-26 21:17:00,
2013-07-26 17:18:00,78.7,66.3,29.97,SW,225,0.9,4.0,66,0.00,,,0.00,WUHU216HW,2013-07-26 21:18:00,
2013-07-26 17:19:00,78.7,66.3,29.97,SSE,158,1.8,4.0,66,0.00,,,0.00,WUHU216HW,2013-07-26 21:19:00,
2013-07-26 17:20:00,78.7,66.3,29.97,SSE,158,4.9,4.9,66,0.00,,,0.00,WUHU216HW,2013-07-26 21:20:00,
2013-07-26 17:21:00,78.8,66.5,29.97,SSE,158,3.4,4.9,66,0.00,,,0.00,WUHU216HW,2013-07-26 21:21:00,
2013-07-26 17:22:00,78.8,66.5,29.97,South,180,3.1,4.9,66,0.00,,,0.00,WUHU216HW,2013-07-26 21:22:00,
2013-07-26 17:23:00,78.8,66.5,29.97,SE,135,4.5,4.9,66,0.00,,,0.00,WUHU216HW,2013-07-26 21:23:00,
2013-07-26 17:24:00,79.0,66.7,29.97,South,180,4.0,4.9,66,0.00,,,0.00,WUHU216HW,2013-07-26 21:24:00,
2013-07-26 17:25:00,79.0,66.7,29.97,SSE,158,1.6,4.9,66,0.00,,,0.00,WUHU216HW,2013-07-26 21:25:00,
2013-07-26 17:26:00,79.0,66.7,29.97,South,180,2.5,4.9,66,0.00,,,0.00,WUHU216HW,2013-07-26 21:26:00,
2013-07-26 17:27:00,79.2,66.9,29.97,SSE,158,3.4,4.9,66,0.00,,,0.00,WUHU216HW,2013-07-26 21:27:00,
2013-07-26 17:28:00,79.2,66.9,29.97,SSE,158,1.8,4.9,66,0.00,,,0.00,WUHU216HW,2013-07-26 21:28:00,
2013-07-26 17:29:00,79.2,66.9,29.97,SSE,158,3.4,4.9,66,0.00,,,0.00,WUHU216HW,2013-07-26 21:29:00,
2013-07-26 17:30:00,79.2,66.9,29.97,SSW,203,2.9,4.5,66,0.00,,,0.00,WUHU216HW,2013-07-26 21:30:00,
2013-07-26 17:31:00,79.2,66.9,29.97,South,180,4.5,4.5,66,0.00,,,0.00,WUHU216HW,2013-07-26 21:31:00,
2013-07-26 17:32:00,79.2,66.9,29.97,SSE,158,3.4,4.5,66,0.00,,,0.00,WUHU216HW,2013-07-26 21:32:00,
2013-07-26 17:33:00,79.2,66.9,29.97,SE,135,1.1,4.5,66,0.00,,,0.00,WUHU216HW,2013-07-26 21:33:00,
2013-07-26 17:34:00,79.2,66.9,29.97,South,180,4.7,4.7,66,0.00,,,0.00,WUHU216HW,2013-07-26 21:34:00,
2013-07-26 17:35:00,79.2,66.9,29.97,SE,135,2.2,4.7,66,0.00,,,0.00,WUHU216HW,2013-07-26 21:35:00,
2013-07-26 17:36:00,79.0,66.7,29.97,East,90,1.3,4.7,66,0.00,,,0.00,WUHU216HW,2013-07-26 21:36:00,
2013-07-26 17:37:00,79.2,66.9,29.97,SW,225,3.4,4.7,66,0.00,,,0.00,WUHU216HW,2013-07-26 21:37:00,
2013-07-26 17:38:00,79.2,66.9,29.97,SSE,158,0.7,4.7,66,0.00,,,0.00,WUHU216HW,2013-07-26 21:38:00,
2013-07-26 17:39:00,79.0,66.7,29.97,SSE,158,2.2,4.7,66,0.00,,,0.00,WUHU216HW,2013-07-26 21:39:00,
2013-07-26 17:40:00,79.0,66.7,29.97,SSE,158,4.9,4.9,66,0.00,,,0.00,WUHU216HW,2013-07-26 21:40:00,
2013-07-26 17:41:00,79.0,66.7,29.97,SSE,158,3.4,4.9,66,0.00,,,0.00,WUHU216HW,2013-07-26 21:41:00,
2013-07-26 17:42:00,79.0,66.7,29.97,SE,135,4.5,4.9,66,0.00,,,0.00,WUHU216HW,2013-07-26 21:42:00,
2013-07-26 17:43:00,79.0,66.7,29.97,SSE,158,2.9,4.9,66,0.00,,,0.00,WUHU216HW,2013-07-26 21:43:00,
2013-07-26 17:44:00,78.8,66.5,29.97,SE,135,1.8,4.9,66,0.00,,,0.00,WUHU216HW,2013-07-26 21:44:00,
2013-07-26 17:45:00,78.8,66.5,29.97,SSE,158,4.0,4.9,66,0.00,,,0.00,WUHU216HW,2013-07-26 21:45:00,
2013-07-26 17:46:00,78.8,66.5,29.97,SSW,203,2.5,4.9,66,0.00,,,0.00,WUHU216HW,2013-07-26 21:46:00,
2013-07-26 17:47:00,78.8,66.5,29.97,SSE,158,1.6,4.9,66,0.00,,,0.00,WUHU216HW,2013-07-26 21:47:00,
2013-07-26 17:48:00,78.8,66.5,29.97,South,180,4.5,4.9,66,0.00,,,0.00,WUHU216HW,2013-07-26 21:48:00,
2013-07-26 17:49:00,78.8,66.5,29.97,South,180,3.8,4.9,66,0.00,,,0.00,WUHU216HW,2013-07-26 21:49:00,
2013-07-26 17:50:00,78.8,67.0,29.97,SSE,158,3.4,4.5,67,0.00,,,0.00,WUHU216HW,2013-07-26 21:50:00,
2013-07-26 17:51:00,78.8,67.0,29.97,SSE,158,1.6,4.5,67,0.00,,,0.00,WUHU216HW,2013-07-26 21:51:00,
2013-07-26 17:52:00,78.8,67.0,29.97,South,180,1.8,4.5,67,0.00,,,0.00,WUHU216HW,2013-07-26 21:52:00,
2013-07-26 17:53:00,78.7,66.8,29.97,South,180,1.8,4.5,67,0.00,,,0.00,WUHU216HW,2013-07-26 21:53:00,
2013-07-26 17:54:00,78.7,66.8,29.97,South,180,1.1,4.5,67,0.00,,,0.00,WUHU216HW,2013-07-26 21:54:00,
2013-07-26 17:55:00,78.7,66.8,29.97,SSE,158,2.9,4.5,67,0.00,,,0.00,WUHU216HW,2013-07-26 21:55:00,
2013-07-26 17:56:00,78.7,66.8,29.97,SSW,203,2.0,4.5,67,0.00,,,0.00,WUHU216HW,2013-07-26 21:56:00,
2013-07-26 17:57:00,78.7,66.8,29.97,South,180,4.3,4.5,67,0.00,,,0.00,WUHU216HW,2013-07-26 21:57:00,
2013-07-26 17:58:00,78.7,66.8,29.97,SSE,158,2.2,4.3,67,0.00,,,0.00,WUHU216HW,2013-07-26 21:58:00,
2013-07-26 17:59:00,78.7,66.8,29.97,SSW,203,2.5,4.3,67,0.00,,,0.00,WUHU216HW,2013-07-26 21:59:00,
2013-07-26 18:00:00,78.5,66.6,29.97,SSE,158,2.5,4.3,67,0.00,,,0.00,WUHU216HW,2013-07-26 22:00:00,
2013-07-26 18:01:00,78.5,66.6,29.97,SSE,158,2.9,4.3,67,0.00,,,0.00,WUHU216HW,2013-07-26 22:01:00,
2013-07-26 18:02:00,78.5,66.6,29.97,SE,135,2.5,4.3,67,0.00,,,0.00,WUHU216HW,2013-07-26 22:02:00,
2013-07-26 18:03:00,78.5,66.6,29.97,SSE,158,2.9,4.3,67,0.00,,,0.00,WUHU216HW,2013-07-26 22:03:00,
2013-07-26 18:04:00,78.5,67.1,29.97,SSE,158,1.3,4.3,68,0.00,,,0.00,WUHU216HW,2013-07-26 22:04:00,
2013-07-26 18:05:00,78.5,67.1,29.97,SSE,158,2.2,4.3,68,0.00,,,0.00,WUHU216HW,2013-07-26 22:05:00,
2013-07-26 18:06:00,78.5,67.1,29.97,SSE,158,3.1,4.3,68,0.00,,,0.00,WUHU216HW,2013-07-26 22:06:00,
2013-07-26 18:07:00,78.5,67.1,29.97,SSE,158,2.5,4.3,68,0.00,,,0.00,WUHU216HW,2013-07-26 22:07:00,
2013-07-26 18:08:00,78.5,67.1,29.97,South,180,2.7,3.1,68,0.00,,,0.00,WUHU216HW,2013-07-26 22:08:00,
2013-07-26 18:09:00,78.5,67.1,29.97,WSW,248,1.8,3.1,68,0.00,,,0.00,WUHU216HW,2013-07-26 22:09:00,
2013-07-26 18:10:00,78.5,67.1,29.97,East,90,1.3,3.1,68,0.00,,,0.00,WUHU216HW,2013-07-26 22:10:00,
2013-07-26 18:11:00,78.5,67.1,29.97,SSW,203,1.3,3.1,68,0.00,,,0.00,WUHU216HW,2013-07-26 22:11:00,
2013-07-26 18:12:00,78.5,67.1,29.97,ENE,68,3.1,3.1,68,0.00,,,0.00,WUHU216HW,2013-07-26 22:12:00,
2013-07-26 18:13:00,78.5,67.1,29.97,South,180,3.1,3.1,68,0.00,,,0.00,WUHU216HW,2013-07-26 22:13:00,
2013-07-26 18:14:00,78.5,67.1,29.97,SSE,158,2.0,3.1,68,0.00,,,0.00,WUHU216HW,2013-07-26 22:14:00,
2013-07-26 18:15:00,78.5,67.1,29.97,SE,135,3.8,3.8,68,0.00,,,0.00,WUHU216HW,2013-07-26 22:15:00,
2013-07-26 18:16:00,78.5,67.1,29.97,SE,135,0.9,3.8,68,0.00,,,0.00,WUHU216HW,2013-07-26 22:16:00,
2013-07-26 18:17:00,78.5,67.5,29.97,SSE,158,1.8,3.8,69,0.00,,,0.00,WUHU216HW,2013-07-26 22:17:00,
2013-07-26 18:18:00,78.5,67.1,29.97,South,180,3.4,3.8,68,0.00,,,0.00,WUHU216HW,2013-07-26 22:18:00,
2013-07-26 18:19:00,78.5,67.1,29.97,SSE,158,4.5,4.5,68,0.00,,,0.00,WUHU216HW,2013-07-26 22:19:00,
2013-07-26 18:20:00,78.5,67.1,29.97,SSE,158,1.8,4.5,68,0.00,,,0.00,WUHU216HW,2013-07-26 22:20:00,
2013-07-26 18:21:00,78.5,67.5,29.97,SSE,158,4.7,4.7,69,0.00,,,0.00,WUHU216HW,2013-07-26 22:21:00,
2013-07-26 18:22:00,78.3,67.3,29.97,South,180,3.8,4.7,69,0.00,,,0.00,WUHU216HW,2013-07-26 22:22:00,
2013-07-26 18:23:00,78.1,67.2,29.97,SSE,158,2.5,4.7,69,0.00,,,0.00,WUHU216HW,2013-07-26 22:23:00,
2013-07-26 18:24:00,78.1,67.2,29.98,NNE,23,3.8,4.7,69,0.00,,,0.00,WUHU216HW,2013-07-26 22:24:00,
2013-07-26 18:25:00,78.1,67.2,29.97,SE,135,1.8,4.7,69,0.00,,,0.00,WUHU216HW,2013-07-26 22:25:00,
2013-07-26 18:26:00,78.1,67.2,29.97,South,180,1.8,4.7,69,0.00,,,0.00,WUHU216HW,2013-07-26 22:26:00,
2013-07-26 18:27:00,77.9,67.0,29.97,SSE,158,1.1,4.7,69,0.00,,,0.00,WUHU216HW,2013-07-26 22:27:00,
2013-07-26 18:28:00,77.8,66.8,29.97,SSE,158,2.5,4.7,69,0.00,,,0.00,WUHU216HW,2013-07-26 22:28:00,
2013-07-26 18:29:00,77.8,67.2,29.98,SSE,158,2.5,4.7,70,0.00,,,0.00,WUHU216HW,2013-07-26 22:29:00,
2013-07-26 18:30:00,77.9,67.4,29.98,SE,135,4.5,4.7,70,0.00,,,0.00,WUHU216HW,2013-07-26 22:30:00,
2013-07-26 18:31:00,77.8,67.2,29.97,East,90,4.3,4.5,70,0.00,,,0.00,WUHU216HW,2013-07-26 22:31:00,
2013-07-26 18:32:00,77.8,67.2,29.98,SSE,158,4.0,4.5,70,0.00,,,0.00,WUHU216HW,2013-07-26 22:32:00,
2013-07-26 18:33:00,77.8,67.2,29.98,SSE,158,5.4,5.4,70,0.00,,,0.00,WUHU216HW,2013-07-26 22:33:00,
2013-07-26 18:34:00,77.6,67.1,29.98,SSE,158,3.4,5.4,70,0.00,,,0.00,WUHU216HW,2013-07-26 22:34:00,
2013-07-26 18:35:00,77.6,67.1,29.98,SSE,158,2.5,5.4,70,0.00,,,0.00,WUHU216HW,2013-07-26 22:35:00,
2013-07-26 18:36:00,77.6,67.1,29.98,ESE,113,2.5,5.4,70,0.00,,,0.00,WUHU216HW,2013-07-26 22:36:00,
2013-07-26 18:37:00,77.4,67.0,29.98,SE,135,3.4,5.4,70,0.00,,,0.00,WUHU216HW,2013-07-26 22:37:00,
2013-07-26 18:38:00,77.4,67.0,29.98,SSE,158,2.2,5.4,70,0.00,,,0.00,WUHU216HW,2013-07-26 22:38:00,
2013-07-26 18:39:00,77.4,67.0,29.98,South,180,3.8,5.4,70,0.00,,,0.00,WUHU216HW,2013-07-26 22:39:00,
2013-07-26 18:40:00,77.4,67.0,29.98,SE,135,3.1,5.4,70,0.00,,,0.00,WUHU216HW,2013-07-26 22:40:00,
2013-07-26 18:41:00,77.4,67.0,29.98,SSE,158,2.5,5.4,70,0.00,,,0.00,WUHU216HW,2013-07-26 22:41:00,
2013-07-26 18:42:00,77.4,67.0,29.98,SSE,158,3.4,5.4,70,0.00,,,0.00,WUHU216HW,2013-07-26 22:42:00,
2013-07-26 18:43:00,77.4,67.0,29.98,South,180,5.4,5.4,70,0.00,,,0.00,WUHU216HW,2013-07-26 22:43:00,
2013-07-26 18:44:00,77.4,67.0,29.98,SSE,158,2.2,5.4,70,0.00,,,0.00,WUHU216HW,2013-07-26 22:44:00,
2013-07-26 18:45:00,77.4,67.3,29.98,SSE,158,3.4,5.4,71,0.00,,,0.00,WUHU216HW,2013-07-26 22:45:00,
2013-07-26 18:46:00,77.4,67.3,29.98,SSE,158,2.5,5.4,71,0.00,,,0.00,WUHU216HW,2013-07-26 22:46:00,
2013-07-26 18:47:00,77.4,67.3,29.98,SSE,158,2.9,5.4,71,0.00,,,0.00,WUHU216HW,2013-07-26 22:47:00,
2013-07-26 18:48:00,77.2,67.1,29.98,SSE,158,1.6,5.4,71,0.00,,,0.00,WUHU216HW,2013-07-26 22:48:00,
2013-07-26 18:49:00,77.4,67.3,29.98,SSE,158,0.7,5.4,71,0.00,,,0.00,WUHU216HW,2013-07-26 22:49:00,
2013-07-26 18:50:00,77.2,67.1,29.98,SSE,158,2.7,5.4,71,0.00,,,0.00,WUHU216HW,2013-07-26 22:50:00,
2013-07-26 18:51:00,77.4,67.3,29.98,SE,135,4.7,5.4,71,0.00,,,0.00,WUHU216HW,2013-07-26 22:51:00,
2013-07-26 18:52:00,77.4,67.3,29.98,SE,135,4.0,5.4,71,0.00,,,0.00,WUHU216HW,2013-07-26 22:52:00,
2013-07-26 18:53:00,77.4,67.3,29.98,SSE,158,2.5,4.7,71,0.00,,,0.00,WUHU216HW,2013-07-26 22:53:00,
2013-07-26 18:54:00,77.2,67.1,29.98,SSE,158,2.5,4.7,71,0.00,,,0.00,WUHU216HW,2013-07-26 22:54:00,
2013-07-26 18:55:00,77.2,67.1,29.98,South,180,3.8,4.7,71,0.00,,,0.00,WUHU216HW,2013-07-26 22:55:00,
2013-07-26 18:56:00,77.2,67.1,29.98,South,180,2.5,4.7,71,0.00,,,0.00,WUHU216HW,2013-07-26 22:56:00,
2013-07-26 18:57:00,77.2,67.1,29.98,SE,135,2.7,4.7,71,0.00,,,0.00,WUHU216HW,2013-07-26 22:57:00,
2013-07-26 18:58:00,77.2,67.1,29.98,SSE,158,3.4,4.7,71,0.00,,,0.00,WUHU216HW,2013-07-26 22:58:00,
2013-07-26 18:59:00,77.2,67.1,29.98,SSE,158,1.8,4.7,71,0.00,,,0.00,WUHU216HW,2013-07-26 22:59:00,
2013-07-26 19:00:00,77.2,67.1,29.98,SSE,158,2.5,4.7,71,0.00,,,0.00,WUHU216HW,2013-07-26 23:00:00,
2013-07-26 19:01:00,77.2,67.1,29.98,South,180,3.6,4.7,71,0.00,,,0.00,WUHU216HW,2013-07-26 23:01:00,
2013-07-26 19:02:00,77.0,67.0,29.98,SSE,158,2.0,4.0,71,0.00,,,0.00,WUHU216HW,2013-07-26 23:02:00,
2013-07-26 19:03:00,77.0,67.0,29.98,SSE,158,1.8,3.8,71,0.00,,,0.00,WUHU216HW,2013-07-26 23:03:00,
2013-07-26 19:04:00,77.0,67.0,29.98,ESE,113,3.4,3.8,71,0.00,,,0.00,WUHU216HW,2013-07-26 23:04:00,
2013-07-26 19:05:00,77.0,67.0,29.98,SSE,158,3.8,3.8,71,0.00,,,0.00,WUHU216HW,2013-07-26 23:05:00,
2013-07-26 19:06:00,77.0,67.0,29.98,East,90,1.8,3.8,71,0.00,,,0.00,WUHU216HW,2013-07-26 23:06:00,
2013-07-26 19:07:00,77.0,67.0,29.98,South,180,3.1,3.8,71,0.00,,,0.00,WUHU216HW,2013-07-26 23:07:00,
2013-07-26 19:08:00,77.0,67.0,29.98,SSE,158,2.5,3.8,71,0.00,,,0.00,WUHU216HW,2013-07-26 23:08:00,
2013-07-26 19:09:00,77.0,67.0,29.98,SE,135,0.9,3.8,71,0.00,,,0.00,WUHU216HW,2013-07-26 23:09:00,
2013-07-26 19:10:00,77.0,67.0,29.98,SSE,158,1.8,3.8,71,0.00,,,0.00,WUHU216HW,2013-07-26 23:10:00,
2013-07-26 19:11:00,76.9,66.8,29.98,SSE,158,4.7,4.7,71,0.00,,,0.00,WUHU216HW,2013-07-26 23:11:00,
2013-07-26 19:12:00,76.9,67.1,29.98,SSW,203,1.3,4.7,72,0.00,,,0.00,WUHU216HW,2013-07-26 23:12:00,
2013-07-26 19:13:00,76.9,67.1,29.98,SSE,158,3.6,4.7,72,0.00,,,0.00,WUHU216HW,2013-07-26 23:13:00,
2013-07-26 19:14:00,76.9,67.1,29.98,SW,225,3.1,4.7,72,0.00,,,0.00,WUHU216HW,2013-07-26 23:14:00,
2013-07-26 19:15:00,76.9,67.1,29.98,South,180,4.0,4.7,72,0.00,,,0.00,WUHU216HW,2013-07-26 23:15:00,
2013-07-26 19:16:00,76.7,67.0,29.98,SSE,158,1.8,4.7,72,0.00,,,0.00,WUHU216HW,2013-07-26 23:16:00,
2013-07-26 19:17:00,76.7,67.0,29.98,SSE,158,4.5,4.7,72,0.00,,,0.00,WUHU216HW,2013-07-26 23:17:00,
2013-07-26 19:18:00,76.7,67.0,29.98,SSW,203,0.4,4.7,72,0.00,,,0.00,WUHU216HW,2013-07-26 23:18:00,
2013-07-26 19:19:00,76.7,67.0,29.98,SSE,158,2.7,4.7,72,0.00,,,0.00,WUHU216HW,2013-07-26 23:19:00,
2013-07-26 19:20:00,76.7,67.0,29.98,SSE,158,2.7,4.7,72,0.00,,,0.00,WUHU216HW,2013-07-26 23:20:00,
2013-07-26 19:21:00,76.7,67.0,29.98,SSE,158,2.0,4.5,72,0.00,,,0.00,WUHU216HW,2013-07-26 23:21:00,
2013-07-26 19:22:00,76.7,67.0,29.98,SSE,158,1.8,4.5,72,0.00,,,0.00,WUHU216HW,2013-07-26 23:22:00,
2013-07-26 19:23:00,76.7,67.0,29.98,SSE,158,2.0,4.5,72,0.00,,,0.00,WUHU216HW,2013-07-26 23:23:00,
2013-07-26 19:24:00,76.7,67.0,29.98,SSE,158,1.6,4.5,72,0.00,,,0.00,WUHU216HW,2013-07-26 23:24:00,
2013-07-26 19:25:00,76.7,67.0,29.98,SSE,158,0.7,4.5,72,0.00,,,0.00,WUHU216HW,2013-07-26 23:25:00,
2013-07-26 19:26:00,76.7,67.0,29.98,NE,45,2.5,4.5,72,0.00,,,0.00,WUHU216HW,2013-07-26 23:26:00,
2013-07-26 19:27:00,76.7,67.0,29.98,SSE,158,1.3,2.7,72,0.00,,,0.00,WUHU216HW,2013-07-26 23:27:00,
2013-07-26 19:28:00,76.7,67.0,29.98,SSE,158,2.0,2.7,72,0.00,,,0.00,WUHU216HW,2013-07-26 23:28:00,
2013-07-26 19:29:00,76.5,66.9,29.98,SE,135,3.1,3.1,72,0.00,,,0.00,WUHU216HW,2013-07-26 23:29:00,
2013-07-26 19:30:00,76.5,66.9,29.98,SSE,158,1.3,3.1,72,0.00,,,0.00,WUHU216HW,2013-07-26 23:30:00,
2013-07-26 19:31:00,76.5,66.9,29.98,SSE,158,2.2,3.1,72,0.00,,,0.00,WUHU216HW,2013-07-26 23:31:00,
2013-07-26 19:32:00,76.3,66.7,29.98,South,180,2.9,3.1,72,0.00,,,0.00,WUHU216HW,2013-07-26 23:32:00,
2013-07-26 19:33:00,76.3,66.7,29.98,SSE,158,1.1,3.1,72,0.00,,,0.00,WUHU216HW,2013-07-26 23:33:00,
2013-07-26 19:34:00,76.3,66.7,29.98,SSE,158,1.8,3.1,72,0.00,,,0.00,WUHU216HW,2013-07-26 23:34:00,
2013-07-26 19:35:00,76.3,66.7,29.98,SE,135,3.6,3.6,72,0.00,,,0.00,WUHU216HW,2013-07-26 23:35:00,
2013-07-26 19:36:00,76.3,66.7,29.98,SE,135,1.8,3.6,72,0.00,,,0.00,WUHU216HW,2013-07-26 23:36:00,
2013-07-26 19:37:00,76.3,67.1,29.98,SSE,158,2.2,3.6,73,0.00,,,0.00,WUHU216HW,2013-07-26 23:37:00,
2013-07-26 19:38:00,76.1,66.5,29.98,SSE,158,3.1,3.6,72,0.00,,,0.00,WUHU216HW,2013-07-26 23:38:00,
2013-07-26 19:39:00,76.1,66.9,29.98,SSW,203,3.6,3.6,73,0.00,,,0.00,WUHU216HW,2013-07-26 23:39:00,
2013-07-26 19:40:00,76.1,66.9,29.98,SSE,158,2.9,3.6,73,0.00,,,0.00,WUHU216HW,2013-07-26 23:40:00,
2013-07-26 19:41:00,76.1,66.9,29.98,SE,135,3.1,3.6,73,0.00,,,0.00,WUHU216HW,2013-07-26 23:41:00,
2013-07-26 19:42:00,76.0,66.7,29.98,SSE,158,3.6,3.6,73,0.00,,,0.00,WUHU216HW,2013-07-26 23:42:00,
2013-07-26 19:43:00,76.0,66.7,29.98,SSE,158,2.2,3.6,73,0.00,,,0.00,WUHU216HW,2013-07-26 23:43:00,
2013-07-26 19:44:00,76.0,66.7,29.98,SSE,158,2.2,3.6,73,0.00,,,0.00,WUHU216HW,2013-07-26 23:44:00,
2013-07-26 19:45:00,75.8,66.5,29.98,SSE,158,1.8,3.6,73,0.00,,,0.00,WUHU216HW,2013-07-26 23:45:00,
2013-07-26 19:46:00,75.8,66.5,29.98,South,180,2.5,3.6,73,0.00,,,0.00,WUHU216HW,2013-07-26 23:46:00,
2013-07-26 19:47:00,75.8,66.5,29.98,South,180,4.7,4.7,73,0.00,,,0.00,WUHU216HW,2013-07-26 23:47:00,
2013-07-26 19:48:00,75.8,66.5,29.98,SSE,158,2.0,4.7,73,0.00,,,0.00,WUHU216HW,2013-07-26 23:48:00,
2013-07-26 19:49:00,75.6,66.3,29.98,SE,135,4.0,4.7,73,0.00,,,0.00,WUHU216HW,2013-07-26 23:49:00,
2013-07-26 19:50:00,75.6,66.3,29.98,SSE,158,6.0,6.0,73,0.00,,,0.00,WUHU216HW,2013-07-26 23:50:00,
2013-07-26 19:51:00,75.6,66.3,29.98,SSE,158,3.4,6.0,73,0.00,,,0.00,WUHU216HW,2013-07-26 23:51:00,
2013-07-26 19:52:00,75.4,66.2,29.98,ESE,113,2.2,6.0,73,0.00,,,0.00,WUHU216HW,2013-07-26 23:52:00,
2013-07-26 19:53:00,75.4,66.2,29.98,SSE,158,3.4,6.0,73,0.00,,,0.00,WUHU216HW,2013-07-26 23:53:00,
2013-07-26 19:54:00,75.2,66.0,29.98,South,180,3.4,6.0,73,0.00,,,0.00,WUHU216HW,2013-07-26 23:54:00,
2013-07-26 19:55:00,75.2,66.0,29.98,South,180,4.3,6.0,73,0.00,,,0.00,WUHU216HW,2013-07-26 23:55:00,
2013-07-26 19:56:00,75.2,66.4,29.98,South,180,6.9,6.9,74,0.00,,,0.00,WUHU216HW,2013-07-26 23:56:00,
2013-07-26 19:57:00,75.2,66.4,29.98,South,180,4.5,6.9,74,0.00,,,0.00,WUHU216HW,2013-07-26 23:57:00,
2013-07-26 19:58:00,75.2,66.4,29.98,SSW,203,3.8,6.9,74,0.00,,,0.00,WUHU216HW,2013-07-26 23:58:00,
2013-07-26 19:59:00,75.1,66.3,29.98,South,180,6.0,6.9,74,0.00,,,0.00,WUHU216HW,2013-07-26 23:59:00,
2013-07-26 20:00:00,75.1,66.3,29.98,South,180,6.0,6.9,74,0.00,,,0.00,WUHU216HW,2013-07-27 00:00:00,
2013-07-26 20:01:00,75.1,66.3,29.98,South,180,3.4,6.9,74,0.00,,,0.00,WUHU216HW,2013-07-27 00:01:00,
2013-07-26 20:02:00,75.1,66.3,29.98,South,180,2.5,6.9,74,0.00,,,0.00,WUHU216HW,2013-07-27 00:02:00,
2013-07-26 20:03:00,75.1,66.3,29.98,SSE,158,2.5,6.9,74,0.00,,,0.00,WUHU216HW,2013-07-27 00:03:00,
2013-07-26 20:04:00,75.1,66.3,29.97,South,180,4.7,6.9,74,0.00,,,0.00,WUHU216HW,2013-07-27 00:04:00,
2013-07-26 20:05:00,75.1,66.3,29.98,SSE,158,5.4,6.9,74,0.00,,,0.00,WUHU216HW,2013-07-27 00:05:00,
2013-07-26 20:06:00,74.9,66.1,29.98,SE,135,3.4,6.9,74,0.00,,,0.00,WUHU216HW,2013-07-27 00:06:00,
2013-07-26 20:07:00,74.9,66.1,29.98,SE,135,4.0,6.0,74,0.00,,,0.00,WUHU216HW,2013-07-27 00:07:00,
2013-07-26 20:08:00,74.9,66.4,29.98,SSE,158,4.7,6.0,75,0.00,,,0.00,WUHU216HW,2013-07-27 00:08:00,
2013-07-26 20:09:00,74.9,66.4,29.98,SSW,203,2.5,6.0,75,0.00,,,0.00,WUHU216HW,2013-07-27 00:09:00,
2013-07-26 20:10:00,74.9,66.4,29.98,SSW,203,4.0,5.4,75,0.00,,,0.00,WUHU216HW,2013-07-27 00:10:00,
2013-07-26 20:11:00,74.9,66.4,29.98,SSE,158,2.9,5.4,75,0.00,,,0.00,WUHU216HW,2013-07-27 00:11:00,
2013-07-26 20:12:00,74.9,66.4,29.98,South,180,4.0,5.4,75,0.00,,,0.00,WUHU216HW,2013-07-27 00:12:00,
2013-07-26 20:13:00,74.7,66.2,29.98,SSE,158,2.2,5.4,75,0.00,,,0.00,WUHU216HW,2013-07-27 00:13:00,
2013-07-26 20:14:00,74.7,66.2,29.98,SSE,158,0.7,5.4,75,0.00,,,0.00,WUHU216HW,2013-07-27 00:14:00,
2013-07-26 20:15:00,74.7,66.2,29.98,SSE,158,3.4,4.7,75,0.00,,,0.00,WUHU216HW,2013-07-27 00:15:00,
2013-07-26 20:16:00,74.7,66.2,29.98,SSE,158,5.1,5.1,75,0.00,,,0.00,WUHU216HW,2013-07-27 00:16:00,
2013-07-26 20:17:00,74.5,66.1,29.98,SSE,158,1.6,5.1,75,0.00,,,0.00,WUHU216HW,2013-07-27 00:17:00,
2013-07-26 20:18:00,74.5,66.1,29.98,South,180,1.8,5.1,75,0.00,,,0.00,WUHU216HW,2013-07-27 00:18:00,
2013-07-26 20:19:00,74.5,66.1,29.98,SSE,158,4.0,5.1,75,0.00,,,0.00,WUHU216HW,2013-07-27 00:19:00,
2013-07-26 20:20:00,74.5,66.1,29.98,SSE,158,2.5,5.1,75,0.00,,,0.00,WUHU216HW,2013-07-27 00:20:00,
2013-07-26 20:21:00,74.5,66.1,29.98,SSW,203,5.4,5.4,75,0.00,,,0.00,WUHU216HW,2013-07-27 00:21:00,
2013-07-26 20:22:00,74.5,66.1,29.98,SSE,158,2.9,5.4,75,0.00,,,0.00,WUHU216HW,2013-07-27 00:22:00,
2013-07-26 20:23:00,74.5,66.5,29.98,SSE,158,4.7,5.4,76,0.00,,,0.00,WUHU216HW,2013-07-27 00:23:00,
2013-07-26 20:24:00,74.5,66.1,29.98,SSE,158,3.6,5.4,75,0.00,,,0.00,WUHU216HW,2013-07-27 00:24:00,
2013-07-26 20:25:00,74.5,66.1,29.98,SSW,203,2.7,5.4,75,0.00,,,0.00,WUHU216HW,2013-07-27 00:25:00,
2013-07-26 20:26:00,74.5,66.1,29.98,South,180,4.0,5.4,75,0.00,,,0.00,WUHU216HW,2013-07-27 00:26:00,
2013-07-26 20:27:00,74.3,66.3,29.98,WSW,248,1.6,5.4,76,0.00,,,0.00,WUHU216HW,2013-07-27 00:27:00,
2013-07-26 20:28:00,74.3,66.3,29.98,SW,225,0.9,5.4,76,0.00,,,0.00,WUHU216HW,2013-07-27 00:28:00,
2013-07-26 20:29:00,74.3,66.3,29.98,South,180,3.4,5.4,76,0.00,,,0.00,WUHU216HW,2013-07-27 00:29:00,
2013-07-26 20:30:00,74.3,66.3,29.98,SSE,158,3.6,5.4,76,0.00,,,0.00,WUHU216HW,2013-07-27 00:30:00,
2013-07-26 20:31:00,74.2,66.2,29.98,SE,135,4.0,4.7,76,0.00,,,0.00,WUHU216HW,2013-07-27 00:31:00,
2013-07-26 20:32:00,74.2,66.2,29.98,SSE,158,4.0,4.7,76,0.00,,,0.00,WUHU216HW,2013-07-27 00:32:00,
2013-07-26 20:33:00,74.2,66.2,29.98,SSE,158,4.0,4.0,76,0.00,,,0.00,WUHU216HW,2013-07-27 00:33:00,
2013-07-26 20:34:00,74.2,66.2,29.98,SSE,158,1.8,4.0,76,0.00,,,0.00,WUHU216HW,2013-07-27 00:34:00,
2013-07-26 20:35:00,74.2,66.2,29.98,South,180,2.5,4.0,76,0.00,,,0.00,WUHU216HW,2013-07-27 00:35:00,
2013-07-26 20:36:00,74.2,66.2,29.98,SSE,158,2.2,4.0,76,0.00,,,0.00,WUHU216HW,2013-07-27 00:36:00,
2013-07-26 20:37:00,74.2,66.2,29.98,SSE,158,2.5,4.0,76,0.00,,,0.00,WUHU216HW,2013-07-27 00:37:00,
2013-07-26 20:38:00,74.2,66.2,29.98,SSE,158,6.7,6.7,76,0.00,,,0.00,WUHU216HW,2013-07-27 00:38:00,
2013-07-26 20:39:00,74.2,66.2,29.98,SSE,158,2.5,6.7,76,0.00,,,0.00,WUHU216HW,2013-07-27 00:39:00,
2013-07-26 20:40:00,74.0,66.0,29.98,SSE,158,1.1,6.7,76,0.00,,,0.00,WUHU216HW,2013-07-27 00:40:00,
2013-07-26 20:41:00,74.0,66.0,29.98,SSE,158,1.1,6.7,76,0.00,,,0.00,WUHU216HW,2013-07-27 00:41:00,
2013-07-26 20:42:00,74.0,66.0,29.98,SE,135,1.1,6.7,76,0.00,,,0.00,WUHU216HW,2013-07-27 00:42:00,
2013-07-26 20:43:00,74.0,66.0,29.98,SE,135,1.1,6.7,76,0.00,,,0.00,WUHU216HW,2013-07-27 00:43:00,
2013-07-26 20:44:00,74.0,66.3,29.98,WSW,248,1.3,6.7,77,0.00,,,0.00,WUHU216HW,2013-07-27 00:44:00,
2013-07-26 20:45:00,74.0,66.3,29.98,SE,135,1.8,6.7,77,0.00,,,0.00,WUHU216HW,2013-07-27 00:45:00,
2013-07-26 20:46:00,74.0,66.3,29.98,SSW,203,2.5,6.7,77,0.00,,,0.00,WUHU216HW,2013-07-27 00:46:00,
2013-07-26 20:47:00,74.0,66.3,29.98,SSE,158,1.8,6.7,77,0.00,,,0.00,WUHU216HW,2013-07-27 00:47:00,
2013-07-26 20:48:00,73.8,66.2,29.98,SSE,158,0.9,2.5,77,0.00,,,0.00,WUHU216HW,2013-07-27 00:48:00,
2013-07-26 20:49:00,73.8,66.2,29.98,SSE,158,2.0,2.5,77,0.00,,,0.00,WUHU216HW,2013-07-27 00:49:00,
2013-07-26 20:50:00,73.8,66.2,29.98,South,180,3.1,3.1,77,0.00,,,0.00,WUHU216HW,2013-07-27 00:50:00,
2013-07-26 20:51:00,73.8,66.2,29.98,SE,135,0.2,3.1,77,0.00,,,0.00,WUHU216HW,2013-07-27 00:51:00,
2013-07-26 20:52:00,73.8,66.2,29.98,SE,135,1.1,3.1,77,0.00,,,0.00,WUHU216HW,2013-07-27 00:52:00,
2013-07-26 20:53:00,73.8,66.2,29.98,SE,135,1.6,3.1,77,0.00,,,0.00,WUHU216HW,2013-07-27 00:53:00,
2013-07-26 20:54:00,73.8,66.2,29.98,SE,135,1.6,3.1,77,0.00,,,0.00,WUHU216HW,2013-07-27 00:54:00,
2013-07-26 20:55:00,73.8,66.2,29.98,SSW,203,3.1,3.1,77,0.00,,,0.00,WUHU216HW,2013-07-27 00:55:00,
2013-07-26 20:56:00,73.8,66.2,29.98,SE,135,1.6,3.1,77,0.00,,,0.00,WUHU216HW,2013-07-27 00:56:00,
2013-07-26 20:57:00,73.8,66.2,29.98,South,180,0.7,3.1,77,0.00,,,0.00,WUHU216HW,2013-07-27 00:57:00,
2013-07-26 20:58:00,73.8,66.2,29.98,SSE,158,4.0,4.0,77,0.00,,,0.00,WUHU216HW,2013-07-27 00:58:00,
2013-07-26 20:59:00,73.8,66.2,29.99,South,180,3.6,4.0,77,0.00,,,0.00,WUHU216HW,2013-07-27 00:59:00,
2013-07-26 21:00:00,73.8,66.2,29.99,SSE,158,1.8,4.0,77,0.00,,,0.00,WUHU216HW,2013-07-27 01:00:00,
2013-07-26 21:01:00,73.8,66.2,29.99,SW,225,1.8,4.0,77,0.00,,,0.00,WUHU216HW,2013-07-27 01:01:00,
2013-07-26 21:02:00,73.8,66.2,29.98,SE,135,2.2,4.0,77,0.00,,,0.00,WUHU216HW,2013-07-27 01:02:00,
2013-07-26 21:03:00,73.8,66.2,29.98,South,180,2.7,4.0,77,0.00,,,0.00,WUHU216HW,2013-07-27 01:03:00,
2013-07-26 21:04:00,73.6,66.0,29.99,SSE,158,3.8,4.0,77,0.00,,,0.00,WUHU216HW,2013-07-27 01:04:00,
2013-07-26 21:05:00,73.6,66.0,29.99,SSE,158,2.5,4.0,77,0.00,,,0.00,WUHU216HW,2013-07-27 01:05:00,
2013-07-26 21:06:00,73.6,66.0,29.99,SSE,158,2.0,4.0,77,0.00,,,0.00,WUHU216HW,2013-07-27 01:06:00,
2013-07-26 21:07:00,73.6,66.0,29.99,SSE,158,1.3,4.0,77,0.00,,,0.00,WUHU216HW,2013-07-27 01:07:00,
2013-07-26 21:08:00,73.6,66.4,29.99,SSE,158,1.8,4.0,78,0.00,,,0.00,WUHU216HW,2013-07-27 01:08:00,
2013-07-26 21:09:00,73.6,66.4,29.99,SSE,158,1.3,3.8,78,0.00,,,0.00,WUHU216HW,2013-07-27 01:09:00,
2013-07-26 21:10:00,73.6,66.4,29.99,SSE,158,0.4,3.8,78,0.00,,,0.00,WUHU216HW,2013-07-27 01:10:00,
2013-07-26 21:11:00,73.6,66.4,29.99,SSE,158,0.9,3.8,78,0.00,,,0.00,WUHU216HW,2013-07-27 01:11:00,
2013-07-26 21:12:00,73.6,66.4,29.99,South,180,1.1,3.8,78,0.00,,,0.00,WUHU216HW,2013-07-27 01:12:00,
2013-07-26 21:13:00,73.6,66.4,29.99,SSE,158,2.2,3.8,78,0.00,,,0.00,WUHU216HW,2013-07-27 01:13:00,
2013-07-26 21:14:00,73.4,66.3,29.99,SE,135,1.8,2.5,78,0.00,,,0.00,WUHU216HW,2013-07-27 01:14:00,
2013-07-26 21:15:00,73.4,66.3,29.99,SE,135,3.4,3.4,78,0.00,,,0.00,WUHU216HW,2013-07-27 01:15:00,
2013-07-26 21:16:00,73.4,66.3,29.99,SSE,158,1.3,3.4,78,0.00,,,0.00,WUHU216HW,2013-07-27 01:16:00,
2013-07-26 21:17:00,73.4,66.3,29.99,WSW,248,1.8,3.4,78,0.00,,,0.00,WUHU216HW,2013-07-27 01:17:00,
2013-07-26 21:18:00,73.4,66.3,29.99,SSE,158,1.6,3.4,78,0.00,,,0.00,WUHU216HW,2013-07-27 01:18:00,
2013-07-26 21:19:00,73.4,66.3,29.99,SSE,158,2.2,3.4,78,0.00,,,0.00,WUHU216HW,2013-07-27 01:19:00,
2013-07-26 21:20:00,73.4,66.3,29.99,SSE,158,4.7,4.7,78,0.00,,,0.00,WUHU216HW,2013-07-27 01:20:00,
2013-07-26 21:21:00,73.4,66.3,30.00,SE,135,2.5,4.7,78,0.00,,,0.00,WUHU216HW,2013-07-27 01:21:00,
2013-07-26 21:22:00,73.3,66.1,29.99,SSE,158,2.0,4.7,78,0.00,,,0.00,WUHU216HW,2013-07-27 01:22:00,
2013-07-26 21:23:00,73.3,66.1,30.00,SSW,203,2.0,4.7,78,0.00,,,0.00,WUHU216HW,2013-07-27 01:23:00,
2013-07-26 21:24:00,73.3,66.1,30.00,SSW,203,1.8,4.7,78,0.00,,,0.00,WUHU216HW,2013-07-27 01:24:00,
2013-07-26 21:25:00,73.3,66.1,29.99,SSW,203,0.4,4.7,78,0.00,,,0.00,WUHU216HW,2013-07-27 01:25:00,
2013-07-26 21:26:00,73.3,66.1,30.00,SSW,203,1.1,4.7,78,0.00,,,0.00,WUHU216HW,2013-07-27 01:26:00,
2013-07-26 21:27:00,73.3,66.1,30.00,SSE,158,1.6,4.7,78,0.00,,,0.00,WUHU216HW,2013-07-27 01:27:00,
2013-07-26 21:28:00,73.1,65.9,30.00,SSE,158,1.1,4.7,78,0.00,,,0.00,WUHU216HW,2013-07-27 01:28:00,
2013-07-26 21:29:00,73.1,65.9,30.00,SSE,158,4.7,4.7,78,0.00,,,0.00,WUHU216HW,2013-07-27 01:29:00,
2013-07-26 21:30:00,73.1,65.9,30.00,SSE,158,3.1,4.7,78,0.00,,,0.00,WUHU216HW,2013-07-27 01:30:00,
2013-07-26 21:31:00,73.1,65.9,30.00,SSE,158,1.1,4.7,78,0.00,,,0.00,WUHU216HW,2013-07-27 01:31:00,
2013-07-26 21:32:00,73.1,65.9,30.00,SSE,158,1.3,4.7,78,0.00,,,0.00,WUHU216HW,2013-07-27 01:32:00,
2013-07-26 21:33:00,73.1,65.9,30.00,SSE,158,1.1,4.7,78,0.00,,,0.00,WUHU216HW,2013-07-27 01:33:00,
2013-07-26 21:34:00,73.1,65.9,30.00,SSW,203,0.4,4.7,78,0.00,,,0.00,WUHU216HW,2013-07-27 01:34:00,
2013-07-26 21:35:00,73.1,65.9,30.00,SSE,158,2.0,4.7,78,0.00,,,0.00,WUHU216HW,2013-07-27 01:35:00,
2013-07-26 21:36:00,73.1,65.9,30.00,SSW,203,1.3,4.7,78,0.00,,,0.00,WUHU216HW,2013-07-27 01:36:00,
2013-07-26 21:37:00,73.1,65.9,30.00,SSE,158,1.6,4.7,78,0.00,,,0.00,WUHU216HW,2013-07-27 01:37:00,
2013-07-26 21:38:00,73.1,66.3,30.00,SSE,158,1.8,4.7,79,0.00,,,0.00,WUHU216HW,2013-07-27 01:38:00,
2013-07-26 21:39:00,73.1,65.9,30.00,SSE,158,0.4,3.1,78,0.00,,,0.00,WUHU216HW,2013-07-27 01:39:00,
2013-07-26 21:40:00,72.9,66.1,30.00,SSE,158,1.8,2.0,79,0.00,,,0.00,WUHU216HW,2013-07-27 01:40:00,
2013-07-26 21:41:00,72.9,66.1,30.00,South,180,1.1,2.0,79,0.00,,,0.00,WUHU216HW,2013-07-27 01:41:00,
2013-07-26 21:42:00,72.9,66.1,30.00,SW,225,1.6,2.0,79,0.00,,,0.00,WUHU216HW,2013-07-27 01:42:00,
2013-07-26 21:43:00,72.9,66.1,30.00,SW,225,0.7,2.0,79,0.00,,,0.00,WUHU216HW,2013-07-27 01:43:00,
2013-07-26 21:44:00,72.9,65.7,30.00,SSE,158,1.8,2.0,78,0.00,,,0.00,WUHU216HW,2013-07-27 01:44:00,
2013-07-26 21:45:00,72.9,65.7,30.00,SSE,158,2.0,2.0,78,0.00,,,0.00,WUHU216HW,2013-07-27 01:45:00,
2013-07-26 21:46:00,72.9,66.1,30.00,South,180,2.0,2.0,79,0.00,,,0.00,WUHU216HW,2013-07-27 01:46:00,
2013-07-26 21:47:00,72.7,65.5,30.00,SSW,203,0.9,2.0,78,0.00,,,0.00,WUHU216HW,2013-07-27 01:47:00,
2013-07-26 21:48:00,72.7,65.5,30.00,SW,225,2.5,2.5,78,0.00,,,0.00,WUHU216HW,2013-07-27 01:48:00,
2013-07-26 21:49:00,72.7,65.5,30.00,SSW,203,0.4,2.5,78,0.00,,,0.00,WUHU216HW,2013-07-27 01:49:00,
2013-07-26 21:50:00,72.7,65.9,30.00,SE,135,1.3,2.5,79,0.00,,,0.00,WUHU216HW,2013-07-27 01:50:00,
2013-07-26 21:51:00,72.7,65.9,30.00,South,180,1.8,2.5,79,0.00,,,0.00,WUHU216HW,2013-07-27 01:51:00,
2013-07-26 21:52:00,72.7,65.9,30.00,SE,135,3.4,3.4,79,0.00,,,0.00,WUHU216HW,2013-07-27 01:52:00,
2013-07-26 21:53:00,72.7,65.9,30.00,SSW,203,0.7,3.4,79,0.00,,,0.00,WUHU216HW,2013-07-27 01:53:00,
2013-07-26 21:54:00,72.7,65.5,30.00,SE,135,1.1,3.4,78,0.00,,,0.00,WUHU216HW,2013-07-27 01:54:00,
2013-07-26 21:55:00,72.5,65.7,30.00,SE,135,0.9,3.4,79,0.00,,,0.00,WUHU216HW,2013-07-27 01:55:00,
2013-07-26 21:56:00,72.5,65.4,30.00,SSE,158,2.0,3.4,78,0.00,,,0.00,WUHU216HW,2013-07-27 01:56:00,
2013-07-26 21:57:00,72.5,65.7,30.00,SSE,158,1.6,3.4,79,0.00,,,0.00,WUHU216HW,2013-07-27 01:57:00,
2013-07-26 21:58:00,72.5,65.7,30.00,SSE,158,0.9,3.4,79,0.00,,,0.00,WUHU216HW,2013-07-27 01:58:00,
2013-07-26 21:59:00,72.5,65.7,30.00,SSE,158,1.8,3.4,79,0.00,,,0.00,WUHU216HW,2013-07-27 01:59:00,
2013-07-26 22:00:00,72.5,65.4,30.00,SSE,158,3.4,3.4,78,0.00,,,0.00,WUHU216HW,2013-07-27 02:00:00,
2013-07-26 22:01:00,72.5,65.7,30.00,SSE,158,0.9,3.4,79,0.00,,,0.00,WUHU216HW,2013-07-27 02:01:00,
2013-07-26 22:02:00,72.5,65.7,30.00,SSE,158,0.4,3.4,79,0.00,,,0.00,WUHU216HW,2013-07-27 02:02:00,
2013-07-26 22:03:00,72.5,65.7,30.00,South,180,2.0,3.4,79,0.00,,,0.00,WUHU216HW,2013-07-27 02:03:00,
2013-07-26 22:04:00,72.5,65.7,30.00,SSE,158,4.5,4.5,79,0.00,,,0.00,WUHU216HW,2013-07-27 02:04:00,
2013-07-26 22:05:00,72.5,65.7,30.00,SSE,158,1.6,4.5,79,0.00,,,0.00,WUHU216HW,2013-07-27 02:05:00,
2013-07-26 22:06:00,72.4,65.2,30.00,SE,135,0.7,4.5,78,0.00,,,0.00,WUHU216HW,2013-07-27 02:06:00,
2013-07-26 22:07:00,72.4,65.2,30.00,SSE,158,1.6,4.5,78,0.00,,,0.00,WUHU216HW,2013-07-27 02:07:00,
2013-07-26 22:08:00,72.4,65.2,30.00,South,180,3.1,4.5,78,0.00,,,0.00,WUHU216HW,2013-07-27 02:08:00,
2013-07-26 22:09:00,72.4,65.2,30.00,SSE,158,2.7,4.5,78,0.00,,,0.00,WUHU216HW,2013-07-27 02:09:00,
2013-07-26 22:10:00,72.4,65.2,30.00,SSE,158,0.9,4.5,78,0.00,,,0.00,WUHU216HW,2013-07-27 02:10:00,
2013-07-26 22:11:00,72.4,65.2,30.00,West,270,0.9,4.5,78,0.00,,,0.00,WUHU216HW,2013-07-27 02:11:00,
2013-07-26 22:12:00,72.4,65.2,30.00,SW,225,1.1,4.5,78,0.00,,,0.00,WUHU216HW,2013-07-27 02:12:00,
2013-07-26 22:13:00,72.4,65.2,30.00,SSE,158,1.8,4.5,78,0.00,,,0.00,WUHU216HW,2013-07-27 02:13:00,
2013-07-26 22:14:00,72.4,65.2,30.00,SSE,158,1.8,3.1,78,0.00,,,0.00,WUHU216HW,2013-07-27 02:14:00,
2013-07-26 22:15:00,72.4,65.2,30.00,SSE,158,1.1,3.1,78,0.00,,,0.00,WUHU216HW,2013-07-27 02:15:00,
2013-07-26 22:16:00,72.4,65.2,30.00,SSE,158,1.6,3.1,78,0.00,,,0.00,WUHU216HW,2013-07-27 02:16:00,
2013-07-26 22:17:00,72.4,65.2,30.00,SSE,158,1.3,3.1,78,0.00,,,0.00,WUHU216HW,2013-07-27 02:17:00,
2013-07-26 22:18:00,72.4,65.2,30.00,SSE,158,2.5,2.7,78,0.00,,,0.00,WUHU216HW,2013-07-27 02:18:00,
2013-07-26 22:19:00,72.4,65.2,30.00,SSE,158,1.3,2.5,78,0.00,,,0.00,WUHU216HW,2013-07-27 02:19:00,
2013-07-26 22:20:00,72.4,65.2,30.00,SSE,158,2.0,2.5,78,0.00,,,0.00,WUHU216HW,2013-07-27 02:20:00,
2013-07-26 22:21:00,72.4,65.2,30.01,SSE,158,4.0,4.0,78,0.00,,,0.00,WUHU216HW,2013-07-27 02:21:00,
2013-07-26 22:22:00,72.4,65.2,30.00,SE,135,2.5,4.0,78,0.00,,,0.00,WUHU216HW,2013-07-27 02:22:00,
2013-07-26 22:23:00,72.4,65.2,30.00,SSE,158,2.0,4.0,78,0.00,,,0.00,WUHU216HW,2013-07-27 02:23:00,
2013-07-26 22:24:00,72.2,65.0,30.01,SSE,158,1.8,4.0,78,0.00,,,0.00,WUHU216HW,2013-07-27 02:24:00,
2013-07-26 22:25:00,72.2,65.0,30.01,SSE,158,1.1,4.0,78,0.00,,,0.00,WUHU216HW,2013-07-27 02:25:00,
2013-07-26 22:26:00,72.2,65.4,30.01,SSE,158,1.1,4.0,79,0.00,,,0.00,WUHU216HW,2013-07-27 02:26:00,
2013-07-26 22:27:00,72.2,65.4,30.01,SSW,203,1.8,4.0,79,0.00,,,0.00,WUHU216HW,2013-07-27 02:27:00,
2013-07-26 22:28:00,72.2,65.4,30.01,SW,225,0.9,4.0,79,0.00,,,0.00,WUHU216HW,2013-07-27 02:28:00,
2013-07-26 22:29:00,72.2,65.4,30.01,South,180,2.7,4.0,79,0.00,,,0.00,WUHU216HW,2013-07-27 02:29:00,
2013-07-26 22:30:00,72.2,65.4,30.01,SSE,158,4.0,4.0,79,0.00,,,0.00,WUHU216HW,2013-07-27 02:30:00,
2013-07-26 22:31:00,72.2,65.4,30.01,SSE,158,1.8,4.0,79,0.00,,,0.00,WUHU216HW,2013-07-27 02:31:00,
2013-07-26 22:32:00,72.2,65.4,30.01,SSE,158,1.8,4.0,79,0.00,,,0.00,WUHU216HW,2013-07-27 02:32:00,
2013-07-26 22:33:00,72.2,65.4,30.01,South,180,3.1,4.0,79,0.00,,,0.00,WUHU216HW,2013-07-27 02:33:00,
2013-07-26 22:34:00,72.2,65.4,30.01,SE,135,1.8,4.0,79,0.00,,,0.00,WUHU216HW,2013-07-27 02:34:00,
2013-07-26 22:35:00,72.0,65.2,30.01,SE,135,3.4,4.0,79,0.00,,,0.00,WUHU216HW,2013-07-27 02:35:00,
2013-07-26 22:36:00,72.0,65.2,30.01,SSE,158,2.2,4.0,79,0.00,,,0.00,WUHU216HW,2013-07-27 02:36:00,
2013-07-26 22:37:00,72.0,65.2,30.01,South,180,1.1,4.0,79,0.00,,,0.00,WUHU216HW,2013-07-27 02:37:00,
2013-07-26 22:38:00,72.0,65.2,30.01,SE,135,2.0,4.0,79,0.00,,,0.00,WUHU216HW,2013-07-27 02:38:00,
2013-07-26 22:39:00,72.0,65.2,30.01,WSW,248,1.3,4.0,79,0.00,,,0.00,WUHU216HW,2013-07-27 02:39:00,
2013-07-26 22:40:00,72.0,65.2,30.01,SSE,158,3.1,3.4,79,0.00,,,0.00,WUHU216HW,2013-07-27 02:40:00,
2013-07-26 22:41:00,72.0,65.2,30.01,SSE,158,2.9,3.4,79,0.00,,,0.00,WUHU216HW,2013-07-27 02:41:00,
2013-07-26 22:42:00,72.0,65.2,30.01,SSE,158,1.8,3.4,79,0.00,,,0.00,WUHU216HW,2013-07-27 02:42:00,
2013-07-26 22:43:00,72.0,65.2,30.01,SSE,158,2.2,3.4,79,0.00,,,0.00,WUHU216HW,2013-07-27 02:43:00,
2013-07-26 22:44:00,71.8,65.0,30.01,South,180,0.4,3.4,79,0.00,,,0.00,WUHU216HW,2013-07-27 02:44:00,
2013-07-26 22:45:00,71.8,65.0,30.01,WSW,248,1.3,3.1,79,0.00,,,0.00,WUHU216HW,2013-07-27 02:45:00,
2013-07-26 22:46:00,71.8,65.0,30.01,South,180,2.0,3.1,79,0.00,,,0.00,WUHU216HW,2013-07-27 02:46:00,
2013-07-26 22:47:00,71.8,65.0,30.01,South,180,1.3,3.1,79,0.00,,,0.00,WUHU216HW,2013-07-27 02:47:00,
2013-07-26 22:48:00,71.8,65.0,30.01,SSE,158,1.3,3.1,79,0.00,,,0.00,WUHU216HW,2013-07-27 02:48:00,
2013-07-26 22:49:00,71.8,65.3,30.01,SE,135,2.2,3.1,80,0.00,,,0.00,WUHU216HW,2013-07-27 02:49:00,
2013-07-26 22:50:00,71.8,65.3,30.01,SSE,158,1.6,2.9,80,0.00,,,0.00,WUHU216HW,2013-07-27 02:50:00,
2013-07-26 22:51:00,71.8,65.3,30.01,SSE,158,2.5,2.5,80,0.00,,,0.00,WUHU216HW,2013-07-27 02:51:00,
2013-07-26 22:52:00,71.8,65.3,30.00,SE,135,3.4,3.4,80,0.00,,,0.00,WUHU216HW,2013-07-27 02:52:00,
2013-07-26 22:53:00,71.8,65.3,30.01,SSW,203,4.0,4.0,80,0.00,,,0.00,WUHU216HW,2013-07-27 02:53:00,
2013-07-26 22:54:00,71.8,65.3,30.00,SSW,203,0.4,4.0,80,0.00,,,0.00,WUHU216HW,2013-07-27 02:54:00,
2013-07-26 22:55:00,71.6,65.2,30.01,SSW,203,1.3,4.0,80,0.00,,,0.00,WUHU216HW,2013-07-27 02:55:00,
2013-07-26 22:56:00,71.6,65.2,30.01,SSE,158,2.0,4.0,80,0.00,,,0.00,WUHU216HW,2013-07-27 02:56:00,
2013-07-26 22:57:00,71.6,65.2,30.01,SSE,158,1.6,4.0,80,0.00,,,0.00,WUHU216HW,2013-07-27 02:57:00,
2013-07-26 22:58:00,71.6,65.2,30.01,SSE,158,1.3,4.0,80,0.00,,,0.00,WUHU216HW,2013-07-27 02:58:00,
2013-07-26 22:59:00,71.6,65.2,30.01,SSW,203,3.4,4.0,80,0.00,,,0.00,WUHU216HW,2013-07-27 02:59:00,
2013-07-26 23:00:00,71.6,65.2,30.01,SSW,203,3.4,4.0,80,0.00,,,0.00,WUHU216HW,2013-07-27 03:00:00,
2013-07-26 23:01:00,71.6,65.2,30.01,SSE,158,1.8,4.0,80,0.00,,,0.00,WUHU216HW,2013-07-27 03:01:00,
2013-07-26 23:02:00,71.6,65.2,30.01,SSE,158,1.6,4.0,80,0.00,,,0.00,WUHU216HW,2013-07-27 03:02:00,
2013-07-26 23:03:00,71.6,65.2,30.01,SE,135,0.7,4.0,80,0.00,,,0.00,WUHU216HW,2013-07-27 03:03:00,
2013-07-26 23:04:00,71.6,65.2,30.01,SSE,158,2.7,3.4,80,0.00,,,0.00,WUHU216HW,2013-07-27 03:04:00,
2013-07-26 23:05:00,71.6,65.2,30.01,SSE,158,3.1,3.4,80,0.00,,,0.00,WUHU216HW,2013-07-27 03:05:00,
2013-07-26 23:06:00,71.6,65.2,30.01,SSE,158,1.1,3.4,80,0.00,,,0.00,WUHU216HW,2013-07-27 03:06:00,
2013-07-26 23:07:00,71.6,65.2,30.01,SSE,158,1.8,3.4,80,0.00,,,0.00,WUHU216HW,2013-07-27 03:07:00,
2013-07-26 23:08:00,71.6,65.2,30.01,SSE,158,1.8,3.4,80,0.00,,,0.00,WUHU216HW,2013-07-27 03:08:00,
2013-07-26 23:09:00,71.6,65.2,30.01,SSE,158,1.8,3.4,80,0.00,,,0.00,WUHU216HW,2013-07-27 03:09:00,
2013-07-26 23:10:00,71.6,65.2,30.01,SE,135,1.8,3.1,80,0.00,,,0.00,WUHU216HW,2013-07-27 03:10:00,
2013-07-26 23:11:00,71.6,65.2,30.01,SSW,203,3.1,3.1,80,0.00,,,0.00,WUHU216HW,2013-07-27 03:11:00,
2013-07-26 23:12:00,71.6,65.2,30.01,SSE,158,1.6,3.1,80,0.00,,,0.00,WUHU216HW,2013-07-27 03:12:00,
2013-07-26 23:13:00,71.6,65.2,30.01,SSE,158,2.0,3.1,80,0.00,,,0.00,WUHU216HW,2013-07-27 03:13:00,
2013-07-26 23:14:00,71.6,65.2,30.01,SSE,158,1.1,3.1,80,0.00,,,0.00,WUHU216HW,2013-07-27 03:14:00,
2013-07-26 23:15:00,71.5,65.0,30.01,SSE,158,0.4,3.1,80,0.00,,,0.00,WUHU216HW,2013-07-27 03:15:00,
2013-07-26 23:16:00,71.5,65.0,30.01,SSE,158,1.3,3.1,80,0.00,,,0.00,WUHU216HW,2013-07-27 03:16:00,
2013-07-26 23:17:00,71.5,65.0,30.01,SSE,158,1.1,3.1,80,0.00,,,0.00,WUHU216HW,2013-07-27 03:17:00,
2013-07-26 23:18:00,71.5,65.0,30.01,South,180,1.1,3.1,80,0.00,,,0.00,WUHU216HW,2013-07-27 03:18:00,
2013-07-26 23:19:00,71.5,65.0,30.01,South,180,0.0,3.1,80,0.00,,,0.00,WUHU216HW,2013-07-27 03:19:00,
2013-07-26 23:20:00,71.5,65.0,30.01,SSE,158,0.4,3.1,80,0.00,,,0.00,WUHU216HW,2013-07-27 03:20:00,
2013-07-26 23:21:00,71.5,65.0,30.01,SSE,158,1.8,2.0,80,0.00,,,0.00,WUHU216HW,2013-07-27 03:21:00,
2013-07-26 23:22:00,71.5,65.0,30.01,SSE,158,3.8,3.8,80,0.00,,,0.00,WUHU216HW,2013-07-27 03:22:00,
2013-07-26 23:23:00,71.5,65.0,30.01,SSE,158,0.4,3.8,80,0.00,,,0.00,WUHU216HW,2013-07-27 03:23:00,
2013-07-26 23:24:00,71.5,65.0,30.01,SSE,158,0.9,3.8,80,0.00,,,0.00,WUHU216HW,2013-07-27 03:24:00,
2013-07-26 23:25:00,71.5,65.0,30.01,South,180,1.3,3.8,80,0.00,,,0.00,WUHU216HW,2013-07-27 03:25:00,
2013-07-26 23:26:00,71.5,65.0,30.01,SSE,158,2.0,3.8,80,0.00,,,0.00,WUHU216HW,2013-07-27 03:26:00,
2013-07-26 23:27:00,71.5,65.0,30.01,SSE,158,2.5,3.8,80,0.00,,,0.00,WUHU216HW,2013-07-27 03:27:00,
2013-07-26 23:28:00,71.5,65.0,30.01,South,180,0.4,3.8,80,0.00,,,0.00,WUHU216HW,2013-07-27 03:28:00,
2013-07-26 23:29:00,71.3,64.8,30.01,SSE,158,2.7,3.8,80,0.00,,,0.00,WUHU216HW,2013-07-27 03:29:00,
2013-07-26 23:30:00,71.3,64.8,30.01,SSE,158,2.2,3.8,80,0.00,,,0.00,WUHU216HW,2013-07-27 03:30:00,
2013-07-26 23:31:00,71.3,64.8,30.01,SSE,158,2.5,3.8,80,0.00,,,0.00,WUHU216HW,2013-07-27 03:31:00,
2013-07-26 23:32:00,71.3,64.8,30.01,SSE,158,1.8,2.7,80,0.00,,,0.00,WUHU216HW,2013-07-27 03:32:00,
2013-07-26 23:33:00,71.3,64.8,30.01,SW,225,1.6,2.7,80,0.00,,,0.00,WUHU216HW,2013-07-27 03:33:00,
2013-07-26 23:34:00,71.3,64.8,30.01,SE,135,4.3,4.3,80,0.00,,,0.00,WUHU216HW,2013-07-27 03:34:00,
2013-07-26 23:35:00,71.3,64.8,30.01,SE,135,2.5,4.3,80,0.00,,,0.00,WUHU216HW,2013-07-27 03:35:00,
2013-07-26 23:36:00,71.3,64.8,30.01,South,180,5.4,5.4,80,0.00,,,0.00,WUHU216HW,2013-07-27 03:36:00,
2013-07-26 23:37:00,71.3,64.8,30.01,SSE,158,2.9,5.4,80,0.00,,,0.00,WUHU216HW,2013-07-27 03:37:00,
2013-07-26 23:38:00,71.1,64.6,30.01,SSE,158,2.9,5.4,80,0.00,,,0.00,WUHU216HW,2013-07-27 03:38:00,
2013-07-26 23:39:00,71.1,64.6,30.01,South,180,2.0,5.4,80,0.00,,,0.00,WUHU216HW,2013-07-27 03:39:00,
2013-07-26 23:40:00,71.1,64.6,30.01,ESE,113,3.6,5.4,80,0.00,,,0.00,WUHU216HW,2013-07-27 03:40:00,
2013-07-26 23:41:00,71.1,64.6,30.01,SSE,158,2.2,5.4,80,0.00,,,0.00,WUHU216HW,2013-07-27 03:41:00,
2013-07-26 23:42:00,71.1,64.6,30.01,SSE,158,2.2,5.4,80,0.00,,,0.00,WUHU216HW,2013-07-27 03:42:00,
2013-07-26 23:43:00,71.1,64.6,30.01,SSE,158,1.8,5.4,80,0.00,,,0.00,WUHU216HW,2013-07-27 03:43:00,
2013-07-26 23:44:00,71.1,64.6,30.01,SW,225,1.1,5.4,80,0.00,,,0.00,WUHU216HW,2013-07-27 03:44:00,
2013-07-26 23:45:00,71.1,64.6,30.01,SSE,158,4.0,5.4,80,0.00,,,0.00,WUHU216HW,2013-07-27 03:45:00,
2013-07-26 23:46:00,71.1,64.6,30.01,SSE,158,2.5,4.0,80,0.00,,,0.00,WUHU216HW,2013-07-27 03:46:00,
2013-07-26 23:47:00,70.9,64.4,30.01,SSE,158,1.8,4.0,80,0.00,,,0.00,WUHU216HW,2013-07-27 03:47:00,
2013-07-26 23:48:00,70.9,64.4,30.01,SSE,158,5.1,5.1,80,0.00,,,0.00,WUHU216HW,2013-07-27 03:48:00,
2013-07-26 23:49:00,70.9,64.4,30.01,SW,225,1.1,5.1,80,0.00,,,0.00,WUHU216HW,2013-07-27 03:49:00,
2013-07-26 23:50:00,70.9,64.4,30.01,SSE,158,3.8,5.1,80,0.00,,,0.00,WUHU216HW,2013-07-27 03:50:00,
2013-07-26 23:51:00,70.9,64.4,30.01,SSE,158,2.5,5.1,80,0.00,,,0.00,WUHU216HW,2013-07-27 03:51:00,
2013-07-26 23:52:00,70.9,64.4,30.01,SSE,158,3.1,5.1,80,0.00,,,0.00,WUHU216HW,2013-07-27 03:52:00,
2013-07-26 23:53:00,70.9,64.8,30.01,SSE,158,5.6,5.6,81,0.00,,,0.00,WUHU216HW,2013-07-27 03:53:00,
2013-07-26 23:54:00,70.9,64.8,30.01,SSE,158,1.6,5.6,81,0.00,,,0.00,WUHU216HW,2013-07-27 03:54:00,
2013-07-26 23:55:00,70.9,64.8,30.01,WSW,248,1.6,5.6,81,0.00,,,0.00,WUHU216HW,2013-07-27 03:55:00,
2013-07-26 23:56:00,70.9,64.8,30.01,South,180,1.8,5.6,81,0.00,,,0.00,WUHU216HW,2013-07-27 03:56:00,
2013-07-26 23:57:00,70.9,64.8,30.01,SE,135,3.4,5.6,81,0.00,,,0.00,WUHU216HW,2013-07-27 03:57:00,
2013-07-26 23:58:00,70.9,64.8,30.01,SSE,158,2.5,5.6,81,0.00,,,0.00,WUHU216HW,2013-07-27 03:58:00,
2013-07-26 23:59:00,70.9,64.8,30.01,SSE,158,1.8,5.6,81,0.00,,,0.00,WUHU216HW,2013-07-27 03:59:00,